                ,  0.290,  0.386,  0.483,  0.580,  0.676,  0.773,  0.869,  0.966,  1.063,  1.159,  1.256,  1.352,  1.449,  1.545,  1.642,  1.739,  1.835,  1.932,  2.028,  2.125,  2.222,  2.318,  2.415,  2.511,  2.608,  2.705,  2.801,  2.898,  2.994,  3.091,  3.188,  3.284,  3.381,  3.477,  3.574,  3.671,  3.767,  3.864,  3.960,  4.057,  4.153,  4.250,  4.347,  4.443,  4.540,  4.636,  4.733,  4.830,  4.926,  5.023,  5.119,  5.216,  5.313,  5.409,  5.506,  5.602,  5.699,  5.796
2000/11/04 00:00,  999.0,  999.0,  999.0,  999.0,    6.0,  999.0,  999.0,    1.8,    2.0,    2.3,  999.0,  999.0,  999.0,  999.0,   -3.9,  999.0,   -7.1,  999.0,  999.0,  999.0,  999.0,  999.0,  999.0,  999.0,  999.0,  -22.1,  -21.8,  -22.0,  999.0,  999.0,  -21.3,  -21.8,  999.0,  -22.4,  999.0,  -21.7,  999.0,  -21.2,  -21.2,  -22.0,  -21.8,  -21.5,  999.0,  999.0,  999.0,  999.0,  999.0,  999.0,  999.0,  999.0,  999.0,  999.0,  999.0,  999.0,  999.0,  999.0,  999.0,  999.0
2000/11/04 00:10,  999.0,  999.0,  999.0,    0.5,    0.2,    3.2,    0.8,    1.3,   -0.7,    0.4,   -1.7,   -1.3,  999.0,  999.0,   -3.6,   -9.3,  999.0,   -7.0,  999.0,  999.0,  999.0,  999.0,  999.0,  999.0,  -21.5,  999.0,  999.0,  999.0,  999.0,  -21.6,  -21.8,  -22.1,  999.0,  -22.6,  -22.6,  -21.5,  999.0,  999.0,  999.0,  999.0,  999.0,  999.0,  999.0,  999.0,  999.0,  999.0,  999.0,  999.0,  999.0,  999.0,  999.0,  999.0,  999.0,  999.0,  999.0,  999.0,  999.0,  999.0
2000/11/04 00:20,  999.0,  999.0,    0.1,    1.7,    1.4,  999.0,  999.0,    0.5,   -2.2,   -0.3,  999.0,  999.0,   -6.4,   -6.6,  999.0,  999.0,  999.0,  999.0,  999.0,  999.0,  999.0,  999.0,  999.0,  999.0,  -21.3,  -21.9,  -22.6,  -21.4,  -21.4,  999.0,  999.0,  999.0,  -21.4,  999.0,  -21.7,  -21.2,  999.0,  -21.2,  -21.2,  -21.1,  -21.4,  -20.9,  999.0,  999.0,  999.0,  999.0,  999.0,  999.0,  999.0,  999.0,  999.0,  999.0,  999.0,  999.0,  999.0,  999.0,  999.0,  999.0
2000/11/04 00:30,  999.0,  999.0,  999.0,    0.9,    4.3,    6.4,   -4.4,  999.0,    1.6,  999.0,    3.0,  999.0,  999.0,  999.0,  999.0,  999.0,  999.0,  999.0,  -18.0,  -18.8,  999.0,  -16.7,  -17.2,  -15.7,  -17.4,  -13.4,  -11.9,  -11.7,   -9.9,  -14.0,   -9.0,  -10.2,   -9.5,   -7.0,   -7.8,   -9.4,   -9.8,  -12.1,  -12.3,  -12.2,  -10.4,   -9.8,   -8.4,   -9.9,  999.0,  999.0,  999.0,  999.0,  999.0,  999.0,  999.0,  999.0,  999.0,  999.0,  999.0,  999.0,  999.0,  999.0
2000/11/04 00:40,  999.0,  999.0,  999.0,    1.5,   -1.8,    6.6,   -6.3,   -0.8,  999.0,   -0.8,   -0.3,  999.0,   -4.4,  999.0,  999.0,  999.0,  999.0,  -18.8,  -14.8,  -15.5,  -18.2,  -17.7,  -17.2,  -16.1,  -15.7,  -15.7,  -15.0,  -20.4,  -12.9,  -12.6,  -13.3,  -13.3,  -13.6,  -13.4,  -14.0,  -14.9,  -16.6,  -18.1,  -18.2,  -17.4,  -16.0,  -14.5,  -13.6,  -13.4,  -15.0,  -14.6,  -17.0,  -11.0,  -14.3,  999.0,  -16.2,  -15.0,  -15.8,  999.0,  -15.4,  999.0,  999.0,  -15.6
2000/11/04 00:50,  999.0,  999.0,  999.0,    2.7,   -6.2,  -15.6,   -3.2,  -14.4,  999.0,  -15.9,  -15.6,  -16.9,  -17.2,  -17.7,  -18.1,  -16.7,  -15.3,  -13.6,  -14.0,  -13.4,  -13.4,  -13.5,  -14.2,  -13.1,  -12.8,  -11.8,  -12.8,   -8.9,   -8.0,   -6.9,   -6.8,   -6.6,  -16.2,   -7.1,   -9.7,  -10.6,  -12.7,  -14.2,  -13.5,  -11.3,  -16.3,   -9.2,   -9.1,  -11.2,  -12.9,  -12.2,  -12.7,  999.0,  -10.5,  999.0,  999.0,  999.0,  -15.3,  -15.8,  -16.5,  -16.0,  -17.1,  -16.3
2000/11/04 01:00,  999.0,  999.0,  999.0,   -8.3,   -4.0,  -11.3,  -10.5,  -10.9,   -9.0,    0.6,  999.0,  -14.2,  -14.6,  -15.9,  -16.7,  -14.6,  -14.2,  -12.1,  -10.9,   -9.8,  -10.5,  -10.6,   -9.7,   -9.6,   -9.1,   -6.7,   -5.1,   -5.4,   -1.7,   -2.1,   -0.7,   -1.0,   -1.1,   -1.5,   -1.6,  999.0,   -4.5,   -6.1,  999.0,   -9.1,   -9.9,  -10.3,  -10.7,  -13.2,  -13.6,  -12.9,  -12.8,  -11.3,  -12.2,  -15.4,  -15.6,  999.0,  999.0,  999.0,  999.0,  999.0,  999.0,  999.0
2000/11/04 01:10,  999.0,  999.0,  999.0,   12.3,   -3.9,  999.0,  -12.3,  -12.0,   -0.7,   -0.5,  -13.8,  -15.7,   -8.7,  -10.2,  -19.7,  999.0,  -18.5,   -8.3,   -7.1,  -11.0,  -12.6,   -7.4,   -5.8,   -8.2,  999.0,   -6.8,  999.0,   -2.7,   -1.8,   -1.5,  999.0,   -1.4,   -0.4,   -0.9,   -0.9,   -0.7,   -2.0,   -4.1,   -4.9,   -6.2,   -6.1,  999.0,   -3.0,  -12.1,  -13.4,  999.0,  -15.2,  -10.4,  999.0,  999.0,  -16.1,  -16.7,  -16.6,  999.0,  -15.7,  -16.0,  999.0,  999.0
2000/11/04 01:20,  999.0,  999.0,  999.0,   -4.2,   -2.5,   -7.7,   -9.4,  999.0,  999.0,  999.0,  999.0,  999.0,  999.0,  -20.7,  999.0,  999.0,  999.0,  -16.9,  999.0,  999.0,  999.0,  999.0,  999.0,  999.0,   -9.5,  999.0,  999.0,  999.0,   -7.8,  999.0,   -5.2,   -5.0,   -7.9,  999.0,   -4.2,   -1.0,   -1.0,  999.0,   -4.2,   -2.3,   -3.1,   -1.8,   -0.5,   -0.6,  999.0,    0.0,   -0.4,  999.0,   -0.4,  999.0,   -0.4,    0.0,   -0.3,   -0.3,   -0.7,  999.0,  999.0,  999.0
2000/11/04 01:30,  999.0,  999.0,  999.0,  999.0,    1.4,   -0.1,  999.0,  999.0,  999.0,  999.0,  999.0,  999.0,  999.0,  999.0,  999.0,  999.0,  999.0,  999.0,  999.0,  999.0,    0.9,  999.0,  999.0,  999.0,  999.0,  999.0,  999.0,   -9.1,   -7.6,   -7.4,   -5.9,   -5.0,  999.0,   -4.3,  999.0,   -2.0,   -0.7,    0.3,   -0.4,   -0.4,   -0.5,   -0.2,   -0.2,   -0.9,  999.0,   -0.6,   -1.7,   -0.4,   -0.3,  999.0,   -1.6,   -0.6,   -0.4,   -0.5,  999.0,  999.0,   -1.0,    0.1
2000/11/04 01:40,  999.0,  999.0,  999.0,   -1.3,    2.8,    1.3,  999.0,    0.9,   -2.4,  999.0,  999.0,   -5.6,   -6.7,  999.0,  999.0,   -3.1,  999.0,  999.0,   -0.9,  999.0,    1.1,  999.0,    2.9,  999.0,  999.0,  999.0,  999.0,  999.0,  999.0,  999.0,  999.0,  999.0,  999.0,  999.0,   -3.5,  999.0,   -0.9,   -0.1,   -1.3,  999.0,    0.1,  999.0,   -0.3,   -0.7,   -0.6,  999.0,  999.0,  999.0,   -0.5,  999.0,   -1.1,  999.0,  999.0,  999.0,   -0.8,  999.0,  999.0,   -0.5
2000/11/04 01:50,  999.0,  999.0,  999.0,  999.0,    0.3,  999.0,  999.0,    0.4,   -0.1,   -0.6,  999.0,  999.0,  999.0,  999.0,  999.0,  999.0,  999.0,   -1.1,  999.0,  999.0,   -0.0,  999.0,   -6.2,  999.0,  999.0,  999.0,  999.0,  999.0,  999.0,  999.0,  999.0,  999.0,  999.0,  999.0,   -3.6,   -0.8,  999.0,   -1.9,  999.0,   -1.2,   -0.1,  999.0,  999.0,   -0.5,   -0.5,  999.0,   -0.4,   -0.6,   -0.7,  999.0,   -0.7,   -0.2,   -0.7,   -0.6,   -0.4,   -1.4,  999.0,  999.0
2000/11/04 02:00,  999.0,  999.0,  999.0,  999.0,  999.0,  999.0,  999.0,    1.1,   -1.2,    0.8,  999.0,  999.0,  999.0,  999.0,  999.0,  999.0,  999.0,  999.0,  999.0,  999.0,  999.0,  999.0,  999.0,  999.0,  999.0,  999.0,  999.0,  999.0,  999.0,  999.0,  999.0,  999.0,  999.0,  999.0,  999.0,  999.0,  999.0,  999.0,  999.0,  999.0,  999.0,  999.0,  999.0,  999.0,  999.0,  999.0,  999.0,  999.0,  999.0,  999.0,  999.0,  999.0,  999.0,  999.0,  999.0,  999.0,  999.0,  999.0
2000/11/04 02:10,  999.0,  999.0,   -4.3,   -2.2,   -0.6,   -1.4,   -1.9,   -0.0,  999.0,  999.0,    0.6,    1.7,  999.0,   -3.8,  999.0,  999.0,  999.0,  999.0,  999.0,  999.0,  999.0,  999.0,  999.0,  999.0,  999.0,  999.0,  999.0,  -15.0,  -13.6,  -13.6,  -12.3,  999.0,  -12.7,  -10.0,   -9.8,  -11.1,   -9.9,  999.0,   -9.9,  999.0,   -8.4,   -2.9,   -7.5,  999.0,  999.0,   -5.6,   -3.1,  999.0,   -4.6,   -3.2,   -3.2,   -2.0,   -1.5,   -1.5,   -1.4,   -0.8,   -1.4,  999.0
2000/11/04 02:20,  999.0,  999.0,  999.0,   -4.4,  999.0,  999.0,   -2.3,   -0.9,   -1.5,   -1.0,   -5.4,   -2.0,   -1.4,   -3.0,  999.0,  999.0,  999.0,  999.0,  999.0,  999.0,  999.0,  999.0,  999.0,  999.0,  999.0,  999.0,  999.0,  999.0,  999.0,  999.0,  999.0,  999.0,  999.0,  999.0,  999.0,  999.0,  999.0,  999.0,  999.0,  999.0,  999.0,  999.0,  999.0,  999.0,  999.0,  999.0,  999.0,  999.0,  999.0,  999.0,  999.0,  999.0,  999.0,  999.0,  999.0,  999.0,  999.0,  999.0
2000/11/04 02:30,  999.0,  999.0,  999.0,  999.0,  999.0,    2.9,   -0.5,    0.4,  999.0,  999.0,  999.0,   -4.9,    0.4,   -3.0,  999.0,  999.0,  999.0,  999.0,  999.0,  999.0,  999.0,  999.0,  999.0,  999.0,  999.0,  999.0,  999.0,  999.0,  999.0,  999.0,  999.0,  999.0,  999.0,  999.0,  999.0,  999.0,  999.0,  999.0,  999.0,  999.0,  999.0,  999.0,  999.0,  999.0,  999.0,  999.0,  999.0,  999.0,  999.0,  999.0,  999.0,  999.0,  999.0,  999.0,  999.0,  999.0,  999.0,  999.0
2000/11/04 02:40,  999.0,  999.0,  999.0,  999.0,  999.0,   -5.1,  999.0,   -1.2,  999.0,  999.0,  999.0,  999.0,   -2.2,   -1.4,    1.8,  999.0,  999.0,  999.0,  999.0,  999.0,  999.0,  999.0,  999.0,  999.0,  999.0,  999.0,  999.0,  999.0,  999.0,  999.0,  999.0,  999.0,  999.0,  999.0,  999.0,  999.0,  999.0,  999.0,  999.0,  999.0,  999.0,  999.0,  999.0,  999.0,  999.0,  999.0,  999.0,  999.0,  999.0,  999.0,  999.0,  999.0,  999.0,  999.0,  999.0,  999.0,  999.0,  999.0
2000/11/04 02:50,  999.0,  999.0,  999.0,   -5.1,  999.0,  999.0,   -7.5,  999.0,  999.0,  999.0,  999.0,  999.0,   -2.6,   -2.1,   -0.3,  999.0,   -0.8,   -2.0,   -2.6,  999.0,  999.0,  999.0,  999.0,  999.0,  999.0,  999.0,  999.0,  999.0,  999.0,  999.0,  999.0,  999.0,  999.0,  999.0,  999.0,  999.0,  999.0,    2.9,    1.9,    1.0,  999.0,  999.0,  999.0,    1.0,   -0.6,  999.0,  999.0,  999.0,    0.8,    0.5,  999.0,  999.0,  999.0,  999.0,  999.0,  999.0,    0.7,  999.0
2000/11/04 03:00,  999.0,  999.0,  999.0,  999.0,   -1.5,  999.0,    4.6,    4.7,    4.8,  999.0,   -0.2,   -2.6,   -1.8,   -1.4,  999.0,    4.2,  999.0,  999.0,  999.0,  999.0,  999.0,  999.0,  999.0,  999.0,  999.0,  999.0,  999.0,  999.0,  999.0,  999.0,  999.0,  999.0,  999.0,  999.0,  999.0,  999.0,  999.0,  999.0,  999.0,  999.0,  999.0,  999.0,  999.0,  999.0,  999.0,  999.0,  999.0,  999.0,  999.0,  999.0,  999.0,  999.0,  999.0,  999.0,  999.0,  -41.7,  999.0,  999.0
2000/11/04 03:10,  999.0,  999.0,  999.0,    4.8,   -6.1,   -2.3,  999.0,  999.0,   -2.6,   -2.3,    0.5,   -0.3,   -1.5,   -1.5,   -2.8,  999.0,  999.0,  999.0,  999.0,  999.0,   -0.9,   -4.4,  999.0,  999.0,  999.0,  999.0,  999.0,  999.0,  999.0,  999.0,  999.0,  999.0,  999.0,  999.0,  999.0,  999.0,  999.0,  999.0,  999.0,  999.0,  -35.2,  999.0,  999.0,  999.0,  999.0,  999.0,  999.0,  999.0,  999.0,  999.0,  -42.2,  999.0,  -42.8,  -42.7,  999.0,  -42.0,  999.0,  -42.0
2000/11/04 03:20,  999.0,  999.0,  999.0,  999.0,    1.6,    0.2,    1.9,   -1.3,   -1.9,  999.0,   -1.0,    0.4,    0.5,    3.6,  999.0,  999.0,  999.0,  999.0,   -2.7,  999.0,    0.3,    0.2,  999.0,  999.0,  999.0,  999.0,  999.0,  999.0,  999.0,  999.0,  999.0,  999.0,  999.0,  999.0,  -35.8,  -37.3,  999.0,  999.0,  999.0,  999.0,  -41.5,  -41.9,  -42.4,  999.0,  999.0,  -41.6,  -42.0,  999.0,  999.0,  999.0,  -42.1,  -41.6,  -42.8,  -41.8,  -42.4,  -41.4,  999.0,  -40.9
2000/11/04 03:30,  999.0,  999.0,  999.0,  999.0,  999.0,  999.0,   -1.9,  999.0,  999.0,  999.0,  999.0,  999.0,    0.9,   -2.1,   -0.9,  999.0,  999.0,  999.0,  999.0,  999.0,   -4.1,  999.0,  999.0,  999.0,  999.0,  999.0,  999.0,  999.0,  999.0,  999.0,  999.0,  999.0,  999.0,  999.0,  -33.7,  -37.8,  -35.3,  999.0,  -36.8,  -39.0,  -40.1,  -40.7,  999.0,  999.0,  -41.6,  -42.0,  -41.8,  -41.7,  999.0,  999.0,  -41.5,  999.0,  -41.5,  999.0,  -41.0,  -41.8,  -41.4,  -41.4
2000/11/04 03:40,  999.0,  999.0,   -0.3,  999.0,  999.0,  999.0,    0.3,   -2.2,    1.6,  999.0,  999.0,  999.0,    3.2,    0.9,   -0.6,    0.3,   -1.2,  999.0,   -3.4,  999.0,  999.0,  999.0,  999.0,  999.0,  999.0,  999.0,  999.0,  999.0,  999.0,  999.0,  999.0,  999.0,  999.0,  999.0,  -34.4,  -38.0,  -37.0,  999.0,  999.0,  -37.5,  -38.0,  999.0,  -42.2,  -41.2,  -41.4,  -41.7,  999.0,  -41.7,  -41.8,  999.0,  -41.3,  -42.0,  -42.0,  -42.3,  -41.8,  -41.4,  -41.7,  -42.1
2000/11/04 03:50,  999.0,  999.0,    1.1,  999.0,    0.1,    2.4,    1.3,    0.2,    2.0,    2.7,    5.1,  999.0,    2.6,    2.2,    0.3,    0.1,   -2.1,  999.0,   -5.5,   -4.5,  999.0,  999.0,  999.0,  999.0,  999.0,  999.0,  999.0,  999.0,  999.0,  999.0,  999.0,  999.0,  999.0,  999.0,  -34.6,  -33.6,  -33.5,  -36.1,  -34.9,  -38.2,  -39.4,  -39.8,  -41.0,  -39.9,  -41.7,  -41.9,  -42.1,  -41.6,  -41.0,  999.0,  999.0,  -41.6,  -41.4,  -42.1,  -42.3,  -41.6,  999.0,  999.0
2000/11/04 04:00,  999.0,  999.0,  999.0,  999.0,    5.8,   -2.1,    2.2,   -3.2,  999.0,  999.0,    2.3,  999.0,    2.6,    1.8,    1.5,   -1.0,  999.0,  999.0,  999.0,  999.0,  999.0,  999.0,  999.0,  999.0,  999.0,  999.0,  999.0,  999.0,  999.0,  999.0,  999.0,  999.0,  999.0,  999.0,  999.0,  999.0,  999.0,  999.0,  999.0,  999.0,  999.0,  999.0,  999.0,  999.0,  999.0,  999.0,  999.0,  999.0,  999.0,  999.0,  999.0,  999.0,  999.0,  999.0,  999.0,  999.0,  999.0,  999.0
2000/11/04 04:10,  999.0,  999.0,  999.0,  999.0,    1.5,   -0.3,   -0.4,  999.0,    0.6,  999.0,    4.4,  999.0,    1.1,    0.3,    1.3,  999.0,   -1.5,   -1.0,  999.0,  999.0,  999.0,  999.0,  999.0,  999.0,  999.0,  999.0,  999.0,  999.0,  999.0,  999.0,  999.0,  999.0,  999.0,  999.0,  999.0,  999.0,  999.0,  999.0,  999.0,  999.0,  999.0,  999.0,  999.0,  999.0,  999.0,  999.0,  999.0,  999.0,  999.0,  999.0,  999.0,  999.0,  999.0,  999.0,  999.0,  999.0,  999.0,  999.0
2000/11/04 04:20,  999.0,  999.0,  999.0,  999.0,   -0.5,   -0.6,    1.1,   -0.8,  999.0,  999.0,  999.0,  999.0,  999.0,  999.0,  999.0,   -0.3,  999.0,  999.0,  999.0,  999.0,  999.0,  999.0,  999.0,  999.0,  999.0,  999.0,  999.0,  999.0,  999.0,  999.0,  999.0,  999.0,  999.0,  999.0,  999.0,  999.0,  999.0,  999.0,  999.0,  999.0,  999.0,  999.0,  999.0,  999.0,  999.0,  999.0,  999.0,  999.0,  999.0,  999.0,  999.0,  999.0,  999.0,  999.0,  999.0,  999.0,  999.0,  999.0
2000/11/04 04:30,  999.0,  999.0,  999.0,  999.0,  999.0,  999.0,  999.0,  999.0,  999.0,  999.0,  999.0,  999.0,  999.0,  999.0,  999.0,  999.0,  999.0,  999.0,  999.0,  999.0,  999.0,  999.0,  999.0,   29.3,   30.8,  999.0,  999.0,  999.0,   34.4,   35.3,   37.6,  999.0,  999.0,  999.0,  999.0,  999.0,  999.0,  999.0,  999.0,  999.0,  999.0,  999.0,  999.0,  999.0,  999.0,  999.0,  999.0,  999.0,  999.0,  999.0,  999.0,  999.0,  999.0,  999.0,  999.0,  999.0,  999.0,  999.0
2000/11/04 04:40,  999.0,  999.0,  999.0,  999.0,  999.0,  999.0,  999.0,  999.0,  999.0,  999.0,  999.0,  999.0,   21.0,  999.0,  999.0,  999.0,  999.0,  999.0,  999.0,  999.0,  999.0,  999.0,  999.0,   30.1,  999.0,   32.2,  999.0,  999.0,   34.9,   35.1,   38.0,  999.0,   40.3,  999.0,   41.5,  999.0,  999.0,  999.0,   42.0,  999.0,  999.0,  999.0,   42.1,  999.0,  999.0,  999.0,  999.0,  999.0,  999.0,  999.0,  999.0,  999.0,   40.9,  999.0,  999.0,  999.0,  999.0,  999.0
2000/11/04 04:50,  999.0,  999.0,  999.0,  999.0,  999.0,  999.0,  999.0,  999.0,  999.0,  999.0,    0.3,  999.0,  999.0,  999.0,  999.0,  999.0,   21.1,  999.0,  999.0,  999.0,  999.0,  999.0,  999.0,  999.0,  999.0,  999.0,  999.0,  999.0,   32.5,  999.0,  999.0,  999.0,  999.0,  999.0,  999.0,  999.0,  999.0,  999.0,   40.3,   -1.4,  999.0,  999.0,  999.0,  999.0,  999.0,  999.0,  999.0,  999.0,  999.0,  999.0,  999.0,  999.0,  999.0,  999.0,  999.0,  999.0,  999.0,  999.0
2000/11/04 05:00,  999.0,    0.4,   -1.6,    1.9,   -0.4,    4.2,    4.5,    4.6,  999.0,  999.0,  999.0,  999.0,  999.0,  999.0,  999.0,  999.0,  999.0,  999.0,  999.0,  999.0,  999.0,  999.0,  999.0,  999.0,  999.0,  999.0,  999.0,  999.0,  999.0,  999.0,  999.0,  999.0,  999.0,  999.0,  999.0,  999.0,  999.0,  999.0,  999.0,  999.0,  999.0,  999.0,  999.0,  999.0,  999.0,  999.0,  999.0,  999.0,  999.0,  999.0,  999.0,  999.0,  999.0,  999.0,  999.0,  999.0,  999.0,  999.0
2000/11/04 05:10,  999.0,  999.0,  999.0,   -0.5,    0.9,    1.5,    2.9,    1.7,    2.0,  999.0,  999.0,  999.0,  999.0,  999.0,  999.0,  999.0,  999.0,  999.0,  999.0,  999.0,  999.0,  999.0,  999.0,  999.0,  999.0,  999.0,  999.0,  999.0,  999.0,  999.0,    8.0,    7.2,  999.0,  999.0,    4.0,  999.0,    1.5,  999.0,  999.0,  999.0,  999.0,  999.0,  999.0,  999.0,    0.9,    1.2,  999.0,  999.0,    2.0,    0.8,  999.0,    0.6,  999.0,  999.0,  999.0,  999.0,  999.0,  999.0
2000/11/04 05:20,  999.0,    0.8,   -0.5,   -0.4,   -0.0,    1.3,    3.0,    2.9,    2.9,    2.0,    3.9,  999.0,  999.0,  999.0,  999.0,  999.0,  999.0,  999.0,  999.0,  999.0,  999.0,  999.0,  999.0,  999.0,  999.0,  999.0,  999.0,  999.0,  999.0,  999.0,  999.0,  999.0,  999.0,  999.0,  999.0,  999.0,  999.0,  999.0,  999.0,  999.0,  999.0,  999.0,  999.0,  999.0,  999.0,  999.0,  999.0,  999.0,  999.0,  999.0,  999.0,  999.0,  999.0,  999.0,  999.0,  999.0,  999.0,  999.0
2000/11/04 05:30,  999.0,   -1.5,   -1.3,    0.3,   -0.4,    1.5,  999.0,    1.6,  999.0,    2.4,  999.0,  999.0,    4.1,  999.0,  999.0,  999.0,  999.0,  999.0,  999.0,  999.0,  999.0,  999.0,  999.0,  999.0,  999.0,  999.0,  999.0,  999.0,  999.0,  999.0,  999.0,  999.0,  999.0,  999.0,  999.0,  999.0,  999.0,  999.0,  999.0,  999.0,  999.0,  999.0,  999.0,  999.0,  999.0,  999.0,  999.0,  999.0,  999.0,  999.0,  999.0,  999.0,  999.0,  999.0,  999.0,  999.0,  999.0,  999.0
2000/11/04 05:40,  999.0,   -1.8,    1.5,    0.5,   -0.8,  999.0,  999.0,  999.0,    0.8,    3.3,  999.0,  999.0,  999.0,  999.0,  999.0,  999.0,  999.0,  999.0,  999.0,  999.0,  999.0,  999.0,  999.0,  999.0,  999.0,  999.0,  999.0,  999.0,  999.0,  999.0,    6.5,    5.3,    4.3,    4.3,    2.5,    1.6,  999.0,  999.0,    0.4,  999.0,  999.0,  999.0,  999.0,  999.0,  999.0,    0.8,  999.0,    0.8,    0.9,  999.0,   -0.2,  999.0,  999.0,    0.6,    0.7,    0.2,  999.0,    0.5
2000/11/04 05:50,  999.0,    2.5,  999.0,    0.1,   -0.3,    0.3,    2.2,    1.3,    2.1,    1.7,  999.0,  999.0,    5.0,    4.9,    6.0,  999.0,  999.0,  999.0,  999.0,  999.0,  999.0,  999.0,  999.0,  999.0,  999.0,  999.0,  999.0,  999.0,  999.0,  999.0,    6.6,    5.2,    4.9,    2.9,    0.3,    1.4,    0.5,    0.5,  999.0,    0.3,    0.4,    0.2,   -0.2,    0.1,    0.6,    0.4,  999.0,    0.7,    0.4,    0.8,    1.5,    0.2,    0.9,    2.5,    1.2,    1.1,    0.7,    0.6
2000/11/04 06:00,  999.0,   -0.7,  999.0,    2.9,   -0.1,    2.1,    3.0,    1.5,   -0.6,   -0.3,   -0.6,  999.0,  999.0,    3.8,  999.0,  999.0,  999.0,  999.0,  999.0,  999.0,  999.0,  999.0,  999.0,  999.0,  999.0,  999.0,  999.0,  999.0,  999.0,  999.0,  999.0,    4.7,    4.5,  999.0,    1.5,    0.5,    1.3,    0.2,    0.3,    0.8,    0.1,    0.4,   -0.2,    0.6,    0.9,  999.0,  999.0,    1.6,    0.5,    0.6,    0.9,    1.0,    0.5,  999.0,    1.2,    0.6,    0.8,    1.1
2000/11/04 06:10,  999.0,    0.2,    0.9,  999.0,  999.0,    2.0,    0.5,  999.0,    0.2,   -0.2,    0.0,  999.0,  999.0,  999.0,  999.0,  999.0,  999.0,  999.0,  999.0,  999.0,  999.0,  999.0,  999.0,  999.0,  999.0,  999.0,  999.0,  999.0,  999.0,  999.0,  999.0,  999.0,    2.9,  999.0,  999.0,   -0.6,  999.0,    0.8,    0.9,  999.0,    0.6,    0.7,    0.9,  999.0,    1.3,  999.0,  999.0,  999.0,    1.1,  999.0,    1.1,    0.9,  999.0,  999.0,    0.6,  999.0,  999.0,  999.0
2000/11/04 06:20,  999.0,  999.0,  999.0,  999.0,  999.0,   -0.4,   -1.0,    1.4,   -0.6,  999.0,  999.0,  999.0,  999.0,  999.0,  999.0,  999.0,  999.0,  999.0,  999.0,  999.0,  999.0,  999.0,  999.0,  999.0,  999.0,  999.0,  999.0,  999.0,  999.0,  999.0,  999.0,    6.2,    4.0,    4.2,    2.9,    1.0,    1.2,    0.2,    2.0,  999.0,  999.0,    0.5,    1.0,    0.4,  999.0,    1.3,    1.0,    0.7,    1.0,  999.0,    0.7,  999.0,    1.3,  999.0,  999.0,    0.1,  999.0,    0.4
2000/11/04 06:30,  999.0,  999.0,  999.0,    2.6,  999.0,  999.0,   -2.6,    1.1,    4.2,  999.0,  999.0,  999.0,  999.0,  999.0,  999.0,  999.0,  999.0,  999.0,  999.0,  999.0,  999.0,  999.0,  999.0,  999.0,  999.0,  999.0,  999.0,  999.0,  999.0,  999.0,  999.0,  999.0,  999.0,  999.0,  999.0,  999.0,  999.0,  999.0,  999.0,  999.0,  999.0,  999.0,  999.0,  999.0,  999.0,  999.0,  999.0,  999.0,  999.0,  999.0,  999.0,  999.0,  999.0,  999.0,  999.0,  999.0,  999.0,  999.0
2000/11/04 06:40,  999.0,  999.0,  999.0,  999.0,   -5.4,  999.0,    2.0,   -1.6,   -3.2,  999.0,    0.8,    4.1,  999.0,  999.0,  999.0,  999.0,  999.0,  999.0,  999.0,  999.0,  999.0,  999.0,  999.0,  999.0,  999.0,  999.0,  999.0,  999.0,  999.0,  999.0,  999.0,  999.0,  999.0,  999.0,  999.0,  999.0,  999.0,  999.0,  -41.0,  999.0,  999.0,  999.0,  999.0,  999.0,  999.0,  999.0,  999.0,  999.0,  -42.8,  999.0,  -42.6,  999.0,  -41.8,  999.0,  999.0,  -41.4,  999.0,  999.0
2000/11/04 06:50,  999.0,  999.0,  999.0,  999.0,    2.6,    0.4,    1.0,    1.7,    0.4,  999.0,  999.0,  999.0,    3.9,  999.0,  999.0,  999.0,  999.0,  999.0,  999.0,  999.0,   -7.0,  999.0,  999.0,  999.0,  999.0,  -29.7,  999.0,  999.0,  999.0,  999.0,  999.0,  999.0,  999.0,  999.0,  999.0,  999.0,  999.0,  -40.1,  999.0,  999.0,  999.0,  -41.1,  999.0,  999.0,  999.0,  999.0,  999.0,  999.0,  -41.8,  999.0,  999.0,  999.0,  999.0,  -41.8,  999.0,  999.0,  999.0,  999.0
2000/11/04 07:00,  999.0,  999.0,  999.0,  999.0,   -0.1,   -0.1,  999.0,  999.0,   -0.7,    3.5,  999.0,    0.7,  -12.4,  -13.8,  999.0,  999.0,  999.0,  999.0,  999.0,  999.0,  999.0,  999.0,  999.0,  -27.1,  999.0,  -28.4,  -29.1,  -30.7,  -30.6,  -31.8,  -31.9,  -32.9,  999.0,  -33.7,  -36.6,  -36.3,  -37.7,  -37.5,  -39.1,  -38.6,  -39.4,  -41.4,  -40.9,  999.0,  -41.3,  -42.5,  -42.4,  -41.7,  -41.5,  -41.4,  -41.7,  -41.4,  -41.6,  999.0,  -41.6,  -42.6,  -41.8,  -41.2
2000/11/04 07:10,  999.0,  999.0,   -1.2,   -3.8,   -7.0,  -10.8,  999.0,    6.5,    7.9,   -3.4,  999.0,   -0.3,   -3.0,  999.0,   -8.1,  999.0,  999.0,  999.0,  999.0,  999.0,  999.0,  999.0,  999.0,  999.0,  999.0,  999.0,  999.0,  -29.9,  999.0,  -31.7,  -32.2,  -32.5,  999.0,  999.0,  999.0,  -35.6,  -37.3,  -37.3,  -38.9,  -40.8,  999.0,  999.0,  999.0,  -41.4,  -41.7,  999.0,  -41.7,  -42.0,  -41.6,  -41.3,  999.0,  999.0,  -41.1,  -41.2,  999.0,  999.0,  999.0,  999.0
2000/11/04 07:20,  999.0,  999.0,   -4.5,   -2.1,   -4.6,   -5.6,   -4.5,   -1.6,   -2.0,   -1.6,  999.0,  999.0,  999.0,  999.0,  999.0,  999.0,   -3.8,  999.0,  999.0,  999.0,  999.0,  999.0,  -25.8,  999.0,  999.0,  -28.0,  -29.7,  -30.1,  -30.4,  -32.1,  -32.6,  -35.1,  -35.2,  -35.8,  -37.3,  -38.4,  -39.5,  -39.2,  -41.3,  999.0,  -42.2,  999.0,  -42.1,  -41.2,  -42.2,  999.0,  999.0,  999.0,  -42.7,  999.0,  999.0,  -42.3,  999.0,  999.0,  999.0,  999.0,  999.0,  999.0
2000/11/04 07:30,  999.0,   -0.6,   -0.8,   -0.7,   -1.4,   -5.6,   -6.4,   -5.5,   -4.3,   -3.9,   -3.3,  999.0,  999.0,  999.0,  999.0,  999.0,  999.0,  999.0,  999.0,  999.0,  -23.5,  999.0,  -28.4,  999.0,  -28.1,  -29.2,  -30.2,  999.0,  999.0,  -33.8,  -34.0,  -35.7,  -35.2,  -36.4,  -37.7,  999.0,  -41.6,  -39.2,  -41.4,  999.0,  -41.7,  999.0,  999.0,  999.0,  999.0,  999.0,  999.0,  999.0,  999.0,  999.0,  999.0,  999.0,  999.0,  999.0,  999.0,  999.0,  999.0,  999.0
2000/11/04 07:40,  999.0,   -0.9,   -0.8,   -1.1,    0.1,   -5.7,   -4.6,   -2.9,   -4.7,   -0.7,   -0.8,  999.0,  999.0,  999.0,   -1.2,  999.0,  999.0,   -1.1,  999.0,   -4.6,  999.0,  999.0,  -25.9,  999.0,  -28.0,  999.0,  999.0,  -31.3,  999.0,  -33.6,  -33.5,  -34.8,  -36.8,  -37.7,  -36.6,  999.0,  999.0,  999.0,  999.0,  -41.1,  999.0,  999.0,  999.0,  -41.3,  999.0,  999.0,  999.0,  -41.1,  999.0,  999.0,  999.0,  999.0,  -41.5,  999.0,  999.0,  999.0,  999.0,  999.0
2000/11/04 07:50,  999.0,   -3.4,   -2.3,   -2.4,   -2.7,   -4.0,   -5.0,   -4.7,   -4.7,   -2.7,  999.0,  999.0,   -9.2,  999.0,  999.0,  999.0,  999.0,  999.0,  999.0,  999.0,  -24.9,  -24.6,  999.0,  -28.7,  -29.8,  -29.9,  -31.9,  -31.5,  -32.7,  -34.7,  999.0,  999.0,  -37.3,  -38.2,  -38.6,  -40.4,  -41.3,  -40.7,  -42.2,  -42.0,  -41.8,  -41.8,  -41.3,  -41.2,  -41.4,  -41.8,  -42.2,  -41.3,  999.0,  999.0,  -42.4,  -42.1,  999.0,  -41.1,  -41.4,  -41.5,  999.0,  -41.7
2000/11/04 08:00,  999.0,   -4.9,   -4.0,   -3.4,   -3.4,   -4.1,   -4.9,   -5.2,   -5.3,   -2.8,   -0.8,   -0.7,   -0.4,   -2.1,   -2.5,   -4.0,  999.0,   -3.7,   -7.8,  999.0,  999.0,  999.0,  999.0,  999.0,  999.0,  999.0,  999.0,  999.0,  -27.4,  -28.9,  999.0,  -28.8,  999.0,  -29.2,  -32.1,  -30.6,  999.0,  999.0,  -34.6,  999.0,  999.0,  999.0,  -35.6,  999.0,  -37.3,  -38.4,  999.0,  -39.1,  -41.6,  -39.9,  -41.4,  999.0,  -40.8,  999.0,  -41.0,  -41.9,  999.0,  -42.3
2000/11/04 08:10,  999.0,   -6.3,   -6.9,   -5.4,   -6.0,   -4.9,   -4.3,   -3.1,   -1.6,   -1.1,   -0.3,   -0.6,   -0.5,   -0.9,   -2.6,   -3.5,   -4.1,   -4.6,   -3.7,   -4.7,  999.0,  999.0,  999.0,  999.0,  999.0,  999.0,  999.0,  999.0,  999.0,  -29.4,  999.0,  999.0,  -31.6,  999.0,  999.0,  -34.5,  -35.1,  999.0,  -36.1,  -36.0,  -37.5,  -37.3,  -38.3,  -39.3,  -39.5,  -39.4,  -42.0,  999.0,  -41.3,  -41.6,  -41.7,  -41.6,  -41.9,  -41.7,  -41.7,  -41.5,  -41.9,  -42.1
2000/11/04 08:20,  999.0,   -5.0,   -7.4,   -7.0,   -5.9,   -4.0,   -3.5,   -3.8,   -2.8,   -3.3,   -3.4,   -1.9,   -2.2,   -2.3,   -2.7,   -4.6,   -6.1,  999.0,   -4.6,   -6.7,  999.0,  999.0,  999.0,  999.0,  999.0,  999.0,  999.0,  999.0,  999.0,  999.0,  999.0,  999.0,  -35.2,  -34.0,  -37.6,  999.0,  -37.9,  -34.2,  -36.6,  -39.0,  -39.6,  -41.6,  -41.3,  -41.5,  -40.4,  -42.1,  -41.8,  -41.8,  -41.4,  -41.9,  -41.8,  -41.7,  -42.1,  999.0,  -41.8,  -41.7,  -41.8,  -41.8
2000/11/04 08:30,  999.0,   -4.4,   -6.0,   -6.7,   -6.5,   -5.2,   -4.9,   -3.8,   -1.0,  999.0,  999.0,  999.0,   -1.8,   -1.6,   -3.4,   -4.2,   -4.4,   -5.5,  999.0,  999.0,  999.0,  999.0,  999.0,  999.0,  999.0,  999.0,  999.0,  999.0,  999.0,  -34.1,  -33.7,  -36.6,  -36.8,  -37.9,  -38.8,  -40.1,  -40.5,  999.0,  -41.8,  -41.6,  -41.9,  -41.3,  -41.7,  -41.9,  -41.6,  999.0,  -41.2,  999.0,  -41.8,  -42.2,  -41.6,  -42.0,  -42.8,  -41.9,  -41.6,  999.0,  -41.8,  -42.0
2000/11/04 08:40,  999.0,   -4.0,   -6.6,   -6.1,   -4.9,   -2.7,   -2.2,   -3.5,  999.0,   -3.8,   -6.0,   -6.0,   -5.3,   -4.8,   -4.2,   -1.7,    0.5,   -5.1,   -4.2,  999.0,  999.0,  999.0,  999.0,  999.0,  -29.3,  999.0,  -32.4,  -32.7,  -34.7,  -35.9,  -36.7,  -38.4,  -39.4,  -41.5,  999.0,  -41.6,  -41.6,  -42.0,  -41.9,  -41.5,  -41.9,  -41.8,  -42.1,  -42.1,  -41.3,  -42.6,  -42.0,  -42.2,  -41.8,  -42.1,  -41.9,  -41.9,  -42.6,  999.0,  -42.0,  -42.0,  -41.6,  -41.9
2000/11/04 08:50,  999.0,   -2.8,   -4.7,   -4.2,   -3.3,   -2.3,   -3.2,   -3.7,   -6.2,   -3.5,   -3.9,   -3.5,   -3.5,   -3.7,  999.0,  999.0,  999.0,  999.0,   -3.9,  999.0,  999.0,  999.0,  999.0,  999.0,  -27.6,  999.0,  -30.1,  -31.4,  -32.7,  -33.7,  -34.3,  -36.1,  -37.3,  -38.2,  -39.6,  -40.7,  -41.5,  999.0,  -42.2,  -42.0,  -41.7,  -41.3,  -41.2,  -42.1,  -42.5,  -41.7,  -41.9,  -41.9,  999.0,  -42.0,  -41.6,  -41.9,  -41.8,  -41.6,  -41.7,  -42.3,  -41.9,  -42.2
2000/11/04 09:00,  999.0,   -3.8,   -3.5,   -2.1,   -0.5,   -0.7,   -2.7,   -3.4,   -3.3,   -4.1,   -5.6,   -4.5,   -3.5,  999.0,   -4.9,   -5.5,   -2.4,  999.0,  999.0,  999.0,  999.0,  999.0,  -27.0,  -28.6,  -29.7,  -31.5,  999.0,  -32.9,  -35.5,  -36.8,  -38.6,  -38.1,  -40.0,  -40.8,  -41.6,  -42.3,  -42.0,  -41.8,  -42.0,  -41.6,  -42.1,  -41.7,  -42.0,  -41.8,  -42.0,  -41.8,  -41.9,  -41.8,  -42.0,  -41.6,  -41.5,  -41.4,  -41.5,  999.0,  -41.3,  -42.2,  999.0,  -41.8
2000/11/04 09:10,  999.0,   -3.1,   -4.1,   -0.1,   -0.6,   -1.7,   -3.5,   -3.6,   -2.5,   -3.0,   -3.1,   -3.2,  999.0,  999.0,   -3.4,   -2.9,  999.0,  999.0,  999.0,  999.0,  999.0,  -26.5,  999.0,  999.0,  999.0,  -32.5,  -33.4,  -35.3,  999.0,  -35.7,  -40.1,  -38.0,  -41.5,  -41.2,  -41.7,  -41.7,  -42.1,  -41.5,  -42.0,  -41.5,  -41.7,  -42.1,  -41.6,  -41.3,  -41.9,  -42.8,  -42.0,  -41.9,  -42.0,  -41.7,  -41.8,  -41.5,  -42.0,  -42.0,  -42.4,  -41.8,  -41.9,  -41.9
2000/11/04 09:20,  999.0,   -0.5,   -0.1,   -0.6,   -1.7,   -3.0,   -3.5,   -1.9,   -1.6,   -1.9,   -2.4,  999.0,  999.0,  999.0,   -3.9,   -4.6,   -3.6,  999.0,  999.0,  999.0,  999.0,  999.0,  999.0,  999.0,  999.0,  999.0,  -34.6,  999.0,  -39.0,  -39.7,  -40.7,  -41.3,  -41.8,  -41.8,  -42.4,  -41.6,  -41.1,  -41.6,  -41.5,  -41.6,  -41.9,  -41.5,  -41.7,  -41.7,  -41.6,  -41.8,  -41.5,  -41.7,  -43.0,  999.0,  -41.5,  -41.2,  -41.5,  -41.8,  999.0,  -41.9,  -41.3,  -41.7
2000/11/04 09:30,  999.0,   -4.1,   -0.8,   -1.0,   -1.7,   -3.4,   -3.4,   -1.8,   -0.8,   -1.7,   -2.9,  999.0,   -1.7,  999.0,   -3.9,   -2.9,   -3.8,  999.0,  999.0,  999.0,  999.0,  999.0,  999.0,  999.0,  999.0,  999.0,  999.0,  -31.4,  -36.3,  -38.3,  999.0,  -38.8,  999.0,  999.0,  999.0,  -41.7,  -42.2,  -41.6,  -41.8,  -41.9,  -42.1,  -42.2,  -41.8,  -41.9,  -42.0,  -41.9,  -42.3,  -41.4,  -41.5,  -41.7,  -41.7,  -41.8,  -42.0,  -42.1,  -42.2,  -42.6,  -42.2,  -41.6
2000/11/04 09:40,  999.0,   -3.9,   -1.1,   -1.9,   -2.2,   -2.7,   -4.3,   -3.3,   -1.3,   -1.1,   -2.7,   -2.5,   -0.2,   -2.6,   -2.9,   -2.9,   -2.9,  999.0,  999.0,  999.0,  999.0,  999.0,  999.0,  999.0,  999.0,  999.0,  999.0,  -36.3,  -38.2,  999.0,  -41.0,  -40.7,  -41.6,  -42.0,  -42.0,  -41.8,  -41.7,  -41.5,  -41.7,  -41.6,  -42.0,  -42.2,  -41.8,  -41.1,  -41.8,  -41.5,  -42.0,  -42.2,  -42.2,  -41.9,  -41.7,  -42.0,  -41.6,  -41.8,  -41.9,  -41.8,  -42.3,  999.0
2000/11/04 09:50,  999.0,    0.5,    0.3,   -0.1,   -0.2,   -1.5,   -2.8,   -2.9,   -1.9,   -2.1,   -3.2,   -3.1,  999.0,  999.0,   -5.0,  999.0,  999.0,  999.0,  999.0,  999.0,  999.0,  999.0,  999.0,  999.0,  999.0,  999.0,  -37.4,  999.0,  -40.1,  -41.3,  999.0,  -42.1,  -42.2,  -41.9,  -42.0,  -42.3,  -41.7,  -41.3,  -41.6,  -41.6,  -42.3,  -42.1,  -42.1,  -41.8,  -42.4,  -41.8,  -42.0,  -41.9,  -41.4,  -41.8,  -41.7,  -41.8,  -41.5,  -41.4,  -41.8,  -42.1,  999.0,  -41.6
2000/11/04 10:00,  999.0,    0.3,    0.1,    0.3,   -0.2,   -2.2,   -3.5,   -3.6,   -2.8,   -1.9,   -2.8,   -4.3,  999.0,  999.0,   -1.9,  999.0,   -3.9,  999.0,  999.0,  999.0,  -29.5,  999.0,  -32.8,  -33.7,  -41.5,  -41.7,  999.0,  -41.6,  -41.2,  -41.8,  -41.8,  -41.4,  -42.0,  -42.4,  -41.8,  -42.1,  999.0,  -41.7,  -41.7,  -41.7,  -41.3,  -41.6,  -41.8,  -41.9,  -41.7,  -41.7,  -42.0,  -41.9,  -41.6,  -41.5,  -41.5,  -41.7,  -41.7,  -42.0,  -41.0,  -41.5,  -41.7,  -41.7
2000/11/04 10:10,  999.0,   -1.5,    0.1,    0.8,   -0.2,   -2.0,   -3.0,   -2.3,   -1.9,   -1.8,   -2.9,   -3.2,   -2.5,  999.0,  999.0,  999.0,  999.0,  999.0,  999.0,  999.0,  -33.0,  999.0,  999.0,  -40.0,  -41.5,  -42.2,  -41.3,  -41.9,  -42.2,  -42.7,  -42.2,  -42.0,  -41.9,  -41.6,  -41.5,  -41.9,  -41.6,  -41.1,  -41.7,  -42.1,  -41.7,  -41.5,  -41.5,  -41.5,  -41.8,  -41.9,  -42.1,  -42.1,  -41.8,  -42.9,  -41.6,  -41.3,  -42.0,  -41.5,  -41.1,  -41.6,  -41.8,  999.0
2000/11/04 10:20,  999.0,    0.2,    0.9,    0.9,    0.6,   -1.3,   -2.2,   -1.6,   -0.9,   -0.9,   -1.3,   -3.2,   -4.5,    0.9,   -1.8,  999.0,  999.0,  999.0,   -8.7,  999.0,  999.0,  999.0,  -38.8,  999.0,  -40.0,  -42.2,  -41.5,  -41.8,  -41.7,  -41.7,  -41.9,  999.0,  -42.4,  999.0,  -42.1,  -41.9,  -41.6,  -41.4,  -42.0,  -41.3,  -42.5,  -41.2,  -41.9,  -41.8,  -42.0,  -41.2,  999.0,  999.0,  -42.2,  -41.9,  -41.4,  999.0,  -41.5,  999.0,  999.0,  999.0,  999.0,  999.0
2000/11/04 10:30,  999.0,   -0.1,   -1.1,    0.9,    1.1,   -0.2,   -0.7,   -1.8,   -1.2,   -0.6,   -1.7,   -3.0,  999.0,  999.0,  999.0,  999.0,  999.0,  999.0,  999.0,  999.0,  999.0,  999.0,  -35.1,  -15.1,  -24.9,  -32.4,    5.4,  -18.2,  -19.2,  -27.4,  999.0,  -41.7,  -41.4,  -41.7,  -42.1,  999.0,  999.0,  -41.7,  -42.1,  999.0,  -41.8,  -41.6,  999.0,  -41.6,  -41.8,  -41.7,  -41.6,  -41.9,  -41.8,  -41.7,  -41.9,  -42.1,  -42.3,  -41.9,  -42.0,  -42.1,  -41.9,  -41.9
2000/11/04 10:40,  999.0,   -0.1,   -0.3,   -2.3,   -0.6,   -0.1,    0.0,   -2.2,   -2.1,    0.1,   -0.5,   -1.4,  999.0,  999.0,  999.0,  999.0,  999.0,  999.0,  999.0,  999.0,  999.0,  -32.8,  -34.9,  -35.3,  -35.5,  -39.9,  -40.2,  -40.7,  -41.0,  -42.3,  -41.6,  -41.8,  -41.9,  -41.3,  -41.7,  -41.6,  -42.3,  -41.8,  -41.5,  -41.8,  -41.3,  -42.0,  -42.2,  -42.1,  -42.2,  -41.8,  -41.7,  -42.2,  -42.1,  -41.8,  -41.9,  -42.0,  -41.8,  999.0,  -41.9,  -42.1,  -42.1,  -41.9
2000/11/04 10:50,  999.0,   -0.5,   -0.9,   -0.1,   -0.2,   -0.6,   -0.8,   -2.1,   -2.3,   -3.1,   -3.7,   -3.3,  999.0,  999.0,  999.0,  999.0,  999.0,  -18.8,  999.0,  999.0,  -31.5,  -33.8,  -33.9,  -35.6,  -37.6,  -39.0,  -41.1,  -41.8,  -41.9,  -42.2,  -42.2,  -41.9,  -41.6,  -41.9,  -41.3,  -41.6,  999.0,  -42.3,  -42.0,  -42.2,  -41.8,  -42.3,  -41.6,  -41.8,  -41.9,  -42.5,  -41.8,  -41.7,  -41.8,  -42.0,  -41.5,  -41.7,  -42.0,  -41.7,  -41.8,  -41.6,  -41.9,  -40.9
2000/11/04 11:00,  999.0,    3.5,    1.3,   -1.8,   -1.0,   -1.1,   -1.7,   -2.6,   -2.1,   -2.1,   -3.2,   -2.5,   -4.5,   -5.4,  999.0,  999.0,  999.0,  999.0,  999.0,  -32.5,  -33.2,  -35.0,  -36.6,  -38.9,  -40.4,  -42.2,  -42.0,  -41.6,  999.0,  -42.3,  -41.8,  -42.1,  -42.0,  -41.9,  -41.7,  -41.3,  -41.8,  999.0,  -41.7,  -42.1,  999.0,  -41.8,  -41.4,  -41.5,  -41.8,  -41.8,  -41.7,  -42.0,  -41.8,  -42.1,  -41.7,  -41.8,  -41.7,  -41.6,  -41.8,  999.0,  -41.6,  -41.7
2000/11/04 11:10,  999.0,    0.8,    1.6,    1.4,    1.0,    0.2,   -0.1,   -0.8,   -1.4,   -2.0,   -2.8,  999.0,  999.0,  999.0,  999.0,  999.0,  999.0,  999.0,  999.0,  999.0,  -33.0,  -34.7,  -36.3,  -37.9,  -40.0,  -41.2,  -42.3,  -41.6,  -42.5,  -42.4,  -41.6,  -41.6,  -41.7,  -41.9,  -41.5,  -41.7,  -42.0,  -41.9,  -42.3,  -41.8,  -41.7,  -42.1,  -42.1,  -41.5,  -41.7,  -41.3,  -41.5,  -41.5,  -41.5,  -41.6,  -41.6,  -41.5,  -41.8,  999.0,  -42.0,  -41.7,  -41.6,  -41.9
2000/11/04 11:20,  999.0,    2.0,    0.2,    0.5,    0.7,    0.5,   -0.8,   -1.5,   -2.1,   -1.1,   -1.5,   -2.8,   21.7,   20.9,  999.0,   20.4,   -1.6,  -25.1,  -26.4,  999.0,  -30.1,  -32.2,  -33.0,  -35.0,  -36.9,  -37.4,  999.0,  -40.7,  -42.1,  -42.1,  999.0,  -41.9,  999.0,  -41.7,  -41.6,    8.3,  -41.8,  -10.3,  -20.4,    6.6,   11.0,    0.6,  -11.8,  -15.2,   -6.0,  -41.5,    7.0,  999.0,  -42.0,  -41.7,  -41.6,  -42.5,  999.0,  -40.1,  -30.7,  -31.7,  -41.3,  -31.9
2000/11/04 11:30,  999.0,  999.0,  999.0,   -1.5,    0.5,   -1.2,   -0.5,   -1.2,  999.0,  999.0,   -0.7,   -2.0,  999.0,  999.0,  999.0,  999.0,  999.0,  -25.4,  -27.3,  999.0,  -23.9,  -32.5,  -34.3,  -22.3,  -37.1,  -39.3,  999.0,  -42.6,  -42.2,  999.0,  -42.0,  999.0,  -23.3,   -6.9,  -23.8,  -29.7,  -41.7,  -22.8,  -27.8,  -22.1,  -21.9,  -21.4,  -15.8,   -5.4,   -2.6,   -0.7,   -0.8,   -0.7,   -1.0,   -0.6,   -0.6,   -3.0,  -19.0,   -0.4,  -13.2,   -0.4,  -10.3,   -0.5
2000/11/04 11:40,  999.0,    1.0,   -0.1,   -0.3,   -0.1,    0.4,   -0.4,   -1.6,   -2.5,   -2.9,   -3.1,   -3.5,   -2.6,    9.0,   21.0,   20.1,  999.0,  999.0,  -15.4,  -13.4,  999.0,  999.0,    1.1,  -10.0,   -8.6,  999.0,   -6.0,   -4.2,   -6.6,   -3.2,  -15.7,   -2.1,  -15.1,  -14.5,   -0.8,  -14.4,   -0.8,  -14.4,  -14.4,   -0.8,  -14.6,   -0.7,   -7.9,   -0.9,   -0.8,   -1.2,   -0.9,   -0.6,  -10.8,   -1.9,  -19.3,   -0.5,   -0.6,  -14.3,   -0.5,  -14.4,   -0.4,  -21.5
2000/11/04 11:50,  999.0,    1.3,   -0.2,   -0.8,   -0.8,   -1.1,   -0.5,   -2.0,   -1.6,   -1.6,   -3.5,   -2.3,   -2.1,   -2.7,   -3.7,   -5.6,   -4.6,  999.0,  999.0,  999.0,  999.0,   -7.5,  999.0,  999.0,   -9.9,   -4.5,   -4.3,   -2.7,   -2.6,   -1.5,   -0.6,   -0.8,   -0.9,   -0.7,  999.0,   -0.7,   -0.6,   -0.8,   -0.7,   -0.9,   -0.8,   -0.8,   -0.4,  999.0,   -0.8,   -0.7,   -0.4,   -0.9,   -0.6,   -0.6,   -0.7,   -1.0,   -0.8,   -0.7,   -0.7,   -0.6,   -0.3,   -0.8
2000/11/04 12:00,  999.0,   -0.4,   -1.3,   -1.1,   -0.1,   -0.3,   -0.7,   -0.6,   -0.8,   -0.5,   -1.5,   -3.9,   -3.1,   -5.4,   -3.3,   -0.9,    1.1,  999.0,  999.0,  -12.4,   -8.8,   -8.0,   -6.6,   -4.7,   -3.7,   -3.0,   -1.8,   -0.8,   -0.9,   -1.0,   -0.4,   -0.5,   -0.9,   -0.9,   -0.6,   -0.6,   -0.5,   -0.6,   -0.8,   -0.7,   -0.4,   -0.6,   -0.7,   -0.6,   -0.6,   -0.4,   -0.4,   -1.1,   -0.9,   -0.0,   -0.7,   -0.5,   -0.7,   -0.8,   -1.3,   -0.8,   -1.0,   -0.6
2000/11/04 12:10,  999.0,   -1.7,   -0.2,    1.9,    2.4,    1.6,    2.2,    0.8,    0.9,    0.7,   -0.9,   -2.6,   -2.0,   -0.8,   -2.0,    0.6,  999.0,  999.0,  -12.5,   -9.3,   -8.3,   -4.7,   -3.0,   -2.7,   -0.8,   -1.1,   -0.9,   -0.6,   -0.7,   -0.9,   -0.6,   -0.2,   -0.8,   -0.9,   -0.9,   -0.8,   -0.7,   -0.9,   -0.2,   -0.5,   -0.4,   -0.4,   -0.6,   -0.4,   -0.5,   -1.0,   -0.6,   -0.2,   -0.6,   -0.7,   -0.5,   -0.7,   -1.0,   -1.0,   -0.8,   -0.8,   -0.9,   -0.8
2000/11/04 12:20,  999.0,   -0.2,   -0.2,   -0.5,   -0.3,   -0.7,   -0.1,    0.1,    0.2,    0.1,   -1.8,  999.0,  999.0,  999.0,  999.0,  999.0,  999.0,  999.0,  -12.1,   -8.6,   -6.1,   -3.3,   -0.7,   -0.6,   -0.9,   13.6,    9.8,    6.4,   13.6,   -0.9,   -1.0,   -0.7,   -0.7,   -0.5,   -0.6,   -1.2,   -0.7,   -0.6,   -1.0,   -0.9,   13.6,    6.5,   20.6,   -0.6,   -0.9,   -0.9,    6.3,   -0.8,   20.6,   -0.7,   13.6,    6.4,   -0.8,   -0.7,    9.6,   13.5,   -0.9,   13.6
2000/11/04 12:30,  999.0,    0.7,    1.3,    1.0,    0.2,    0.8,    0.7,    0.2,   -0.6,   -1.5,   -2.6,  999.0,  999.0,  999.0,  999.0,  999.0,  999.0,  999.0,  -10.3,   -8.0,   -5.8,   -4.0,   -1.9,   -1.4,   -0.6,   -0.6,   -0.7,   -0.9,   -0.7,   -1.2,   -1.0,   -0.6,   -0.9,   -0.5,   -0.7,   -0.9,   -0.6,   -0.4,   -0.6,    6.4,   -0.8,   -0.7,   -0.6,    9.9,   13.3,   -0.5,   -1.0,   -1.3,    9.9,   13.5,   -0.3,   -0.9,    6.5,   -0.9,    6.3,   -0.4,   13.3,   13.2
2000/11/04 12:40,  999.0,   -1.9,    2.1,    2.9,    2.5,    1.3,    1.4,   -0.5,   -1.1,   -0.4,   -1.0,   -1.5,   -1.9,  999.0,  999.0,  999.0,  -11.7,   -8.7,  -15.0,  -19.4,   -2.9,  -18.2,   -0.8,  -12.5,  -19.4,  -20.2,  -13.9,  -14.4,  -14.5,  -21.2,  -21.2,  -14.4,  -21.3,  -21.2,  -14.6,  -14.5,   -9.6,  -20.9,   -0.6,  -10.8,  -32.0,  -14.3,  -14.5,   -0.7,  -14.7,  -14.5,  -21.2,  -14.2,  -21.2,   -0.8,  -14.1,  -14.3,  -14.7,  -21.4,  -14.3,  -14.3,  -41.8,  -20.9
2000/11/04 12:50,  999.0,    1.5,   -2.0,    0.5,   -0.0,   -0.3,   -0.4,   -0.9,   -0.8,  999.0,  999.0,    1.2,  999.0,  999.0,  999.0,  999.0,   18.4,    3.0,    3.8,    0.0,    1.3,    2.5,   -1.9,    3.5,    3.1,   -4.7,   -0.8,  -12.4,    1.6,    1.3,   -0.5,   -1.3,   -9.7,   -7.2,   -7.2,   -7.3,  -21.0,   -7.3,   -7.4,   -7.4,   -7.6,   -7.1,   -0.6,    0.7,   -1.1,   -9.1,   -6.8,  -20.7,   -5.1,   -5.4,   -8.8,  -13.8,  -10.7,   -8.3,   -0.6,  -41.2,   -8.0,   -1.1
2000/11/04 13:00,  999.0,    0.3,    0.9,    0.9,    0.4,    0.3,   -0.8,   -0.2,   -0.3,   -1.3,    0.1,    2.1,    4.5,  999.0,  -16.7,  999.0,   -9.4,   -9.0,   -6.0,   -3.7,   -1.4,   -0.8,   -0.7,   -0.7,   -0.9,   -0.6,   -1.0,  999.0,   -0.7,  999.0,   -0.6,    6.5,   10.1,   -0.3,    6.4,   -0.6,    9.7,   13.4,   -0.8,    6.5,   -0.3,   -0.5,   -0.8,   -0.6,   -0.9,   -0.7,   -0.5,   -0.8,   -0.7,   -0.7,   -1.0,  -21.1,  -12.3,   -1.4,   -4.4,  -11.4,   -7.5,  -20.8
2000/11/04 13:10,  999.0,   -1.2,    1.7,    1.3,   -0.6,   -0.5,   -0.2,    0.1,   -0.6,  -21.3,  999.0,  999.0,  -21.2,  -21.5,  -20.1,  -11.3,  999.0,   -7.8,   -5.9,   -6.5,   18.6,   20.5,   -1.1,   20.4,   41.3,   -1.0,   -0.8,   -1.2,   13.4,  -13.1,    8.8,   18.2,  -17.2,   -0.5,   13.7,  -14.9,  -17.8,   26.9,   -0.7,    9.9,    9.9,   10.0,   -1.0,   10.2,   -0.4,    6.6,    9.9,   20.6,    6.2,    0.2,   -0.4,    9.7,   -0.9,   -0.7,   -0.5,   -1.0,  -20.7,    6.3
2000/11/04 13:20,  999.0,  999.0,  -19.3,  -19.7,  -20.8,  -21.1,  -21.3,  -22.4,  -23.0,  -21.4,  -21.3,  -20.6,  -21.7,  -19.1,  -17.1,  -10.6,  -19.2,  -11.1,  -11.7,  999.0,   -1.7,   -5.5,   -0.6,    0.1,   -0.7,   -0.7,   -0.8,   -0.8,   -0.8,   -0.9,    0.8,   -0.7,   -0.5,   -5.3,    5.2,   -1.2,   -0.5,   -2.9,   -1.2,   -0.9,   -1.2,   -7.5,   -9.0,   -0.2,  -21.4,   -9.5,  -14.8,   -1.0,   -8.9,  -14.2,   -1.0,   -6.6,   -1.1,   -1.2,   -0.8,   -0.6,   -1.3,   -1.1
2000/11/04 13:30,  999.0,  999.0,  -21.2,  -20.8,  -21.4,  -19.9,  -20.0,  -20.5,  -21.0,  -20.9,  -20.8,  -20.8,  -20.8,  -21.2,  -20.8,  -21.0,  -21.1,  -19.4,  -17.4,  -13.2,   -8.6,   -5.3,   -2.7,   -0.6,   -0.5,   -0.7,   -0.6,   -0.6,   -0.8,   -1.1,   -0.5,   -0.6,   -0.7,   -0.2,   -0.7,   -0.8,   -0.9,   -0.5,   -0.6,   -0.6,   -1.1,   -0.6,   -0.5,   -0.6,   -0.6,   -0.5,   -0.2,   -0.7,   -1.0,   -1.0,   -0.7,   -0.8,   -0.7,   -0.7,   -0.6,   -0.6,   -0.8,   -0.9
2000/11/04 13:40,  999.0,    0.9,   -8.5,  -19.2,  -18.1,  -18.4,  -19.3,  999.0,  -20.7,  -20.8,  -21.5,  -20.6,  999.0,  -21.5,  -15.8,  -11.0,  -17.7,  -17.0,  -14.6,  -11.3,  999.0,   -6.9,   -5.2,   -3.4,  999.0,   -1.9,   20.7,   -0.4,    6.4,   20.4,   13.2,   -1.0,   -0.8,   -1.4,   -2.5,   -0.8,   -7.7,   -9.7,   -7.0,   -3.3,   -2.0,   -0.8,   -0.5,   -0.6,   -0.7,   -0.6,   -0.5,  999.0,   -0.5,   -0.7,   -0.7,   -0.8,   -0.7,   -0.8,   13.5,   -1.0,   -0.9,   41.5
2000/11/04 13:50,  999.0,  -21.5,   -9.1,  -20.7,  -19.4,  -20.0,  -20.5,  -20.8,  -21.2,  -22.5,  -24.5,  -23.7,  -24.1,  -18.9,  -24.7,  -40.5,  -15.1,  -29.5,   -7.8,  -20.9,   -8.2,  -18.2,  -17.2,  -17.0,  -16.7,  -15.3,   -8.1,  -14.2,   -8.0,   -0.9,   -0.6,  -19.5,    8.6,   -2.2,    0.1,   -0.7,   -1.3,   -1.4,   -0.6,   -1.0,   -0.8,   -0.6,   -1.0,   -0.9,   -1.3,   -1.0,   -0.9,   -0.7,   -0.7,   -0.4,   -0.8,   -0.7,   -0.9,   -1.0,   -0.9,   -0.7,   -0.4,   -0.6
2000/11/04 14:00,  999.0,   -9.6,  -18.8,  -16.7,  -20.8,  -20.4,  -19.4,  -18.6,  -19.3,  -20.2,  -22.5,  -22.5,  -22.4,  -14.1,  -22.0,  -13.5,  -15.8,  -20.8,  -26.6,   -9.8,  -18.7,   -5.7,   -8.7,  -12.6,   -2.6,   -1.5,   -0.8,   -0.7,   -1.5,   -0.5,   -1.0,   -0.4,   -0.8,  -16.8,   -9.7,   -1.2,   -0.5,  -11.1,   -0.4,  -19.1,   -0.7,   -7.3,   -0.6,  -13.6,   -0.6,   -0.5,  -10.0,  -13.5,  -10.3,   -9.2,   -0.6,   -6.6,   -1.3,   -0.8,   -0.2,   -0.4,   13.7,   10.0
2000/11/04 14:10,  999.0,  999.0,  -21.1,  -20.6,  -20.3,  -20.3,  -19.0,  -17.9,  -18.1,  -19.0,  -15.2,   -9.6,  -15.8,  -22.1,  -21.5,  -20.1,  -18.6,  -15.9,  -14.5,  999.0,   -9.6,   -7.7,  999.0,   -0.7,   -2.5,   -1.6,   -0.9,   -1.0,   -0.6,   -0.5,   11.1,   -0.9,   -0.9,   -0.8,   -0.6,   -0.8,   -0.6,   -0.4,   -0.8,   -1.1,   -1.0,   -0.9,   -1.0,   -1.0,   -1.0,   -0.8,   -0.6,   -0.8,   -0.7,   -0.7,   -1.9,  -10.6,   -7.6,   -0.7,   -7.4,  -11.1,   -0.4,   -0.9
2000/11/04 14:20,  999.0,    1.6,    1.4,    2.7,    0.7,    1.5,    0.7,    0.1,    0.8,    1.1,    0.8,    1.1,    0.5,    0.4,    1.7,    0.6,    1.9,  999.0,  999.0,   34.0,  999.0,   41.6,   11.9,   41.5,  999.0,  999.0,  999.0,  999.0,   20.9,   20.3,   20.3,  999.0,   -0.7,   20.9,   21.1,   20.7,   -1.4,    9.6,   18.1,   -1.0,   16.5,   -7.7,    0.2,   -9.1,   -0.0,   -9.0,   -1.5,  999.0,  -12.7,  -11.0,  -13.6,  -27.0,    0.8,  -40.6,  -42.0,  -20.5,  -20.9,  -31.9
2000/11/04 14:30,  999.0,    4.0,    0.5,    0.2,   -0.2,    0.4,    0.2,    0.5,    0.2,    1.5,    1.5,    0.6,    0.1,   -1.0,   -2.2,   -3.2,   -3.8,   -0.9,    2.7,    8.6,  999.0,  999.0,   15.2,  999.0,   -1.2,   -1.2,   -1.1,   -0.8,   -0.9,  999.0,  999.0,   -0.3,   -0.7,  999.0,   -1.1,   -0.3,  999.0,   -0.1,   -1.0,   -0.6,   -0.7,   -2.3,   -6.0,   -9.1,  -12.2,  -15.6,  -18.4,  -19.2,  -25.0,  -28.3,  -27.9,  -30.2,  -37.7,  -38.6,  -40.1,  -41.5,  -41.6,  -41.8
2000/11/04 14:40,  999.0,  999.0,    0.5,    1.2,    0.2,   -0.0,   -0.1,    0.3,    1.1,    1.1,    0.5,    0.3,   -0.1,   -2.3,   -1.4,  999.0,    3.4,  999.0,  999.0,  999.0,  999.0,   13.3,  999.0,  999.0,  999.0,   -7.0,   -5.3,  999.0,   -1.8,   -1.0,   -0.0,   -0.5,   -0.8,   -0.8,   -0.5,   -0.5,   -0.9,   -3.2,   -5.2,   -0.9,  999.0,  -14.4,  -16.6,   -5.2,   -6.7,  -19.9,  -30.1,  -30.9,  -21.7,  -25.5,  -29.9,  -33.8,  -37.7,  -38.9,  -41.8,  -41.8,  -41.7,  -41.7
2000/11/04 14:50,  999.0,  999.0,    1.3,    1.3,   -0.3,   -0.2,    0.2,    0.8,    1.1,    0.7,    0.9,    0.6,    0.6,    0.6,    0.2,   -0.7,    1.7,  999.0,   11.5,  999.0,  -11.6,  999.0,  999.0,  999.0,  999.0,  -21.0,    0.0,  -15.1,  -22.4,  -15.7,   -3.9,  -17.0,  -17.6,   -0.6,  -18.5,  -14.1,  -18.1,  -10.8,   -6.9,   -8.0,   -8.9,  -10.8,  -12.0,  -27.4,  -21.7,  -15.2,  -10.1,  -11.4,   -5.7,  -14.6,  -23.2,  -20.9,   -7.0,  -39.5,  -27.2,   -0.3,  -28.0,  -21.8
2000/11/04 15:00,  999.0,    1.0,    1.4,    2.0,    0.7,    0.6,    0.0,   -0.2,   -0.2,   -0.4,   -0.2,    0.7,   -0.0,   -2.9,   -1.8,  999.0,  999.0,   -1.5,   -3.5,   -3.9,   -0.4,  999.0,  999.0,    1.9,  999.0,  -29.3,  -23.0,  -41.9,  -26.0,  -17.8,  -17.4,  -25.3,  -25.4,  -17.5,  -26.0,  -26.2,  -39.3,   -1.2,  -38.7,  -19.9,  -21.0,  -21.4,  -41.9,  999.0,  -28.8,  -30.3,  -11.0,  -28.5,  -31.0,  -35.9,  -35.3,  -37.9,  -37.9,  -42.0,  -41.9,  -41.8,  -42.0,  -41.7
2000/11/04 15:10,  999.0,  999.0,    0.2,    0.1,    1.3,    1.4,    1.0,    0.4,   -0.4,   -0.7,   -1.3,   -2.0,   -1.6,   -1.3,   -0.8,   -2.2,   -3.2,   -2.6,    1.4,  999.0,   -6.3,  999.0,  999.0,  999.0,  999.0,  -27.1,  999.0,  -31.0,  -31.5,  -31.3,  -18.0,  -17.4,    3.5,  -12.5,  -20.1,  -27.5,  -41.3,  -10.8,  -10.7,  -41.8,  -10.6,  -28.2,  -28.3,  -28.3,   -0.2,  -21.1,  -13.9,  -14.0,    0.2,  -42.0,   -1.8,  -34.9,   -2.6,  -41.3,  -30.9,  -41.9,  -41.8,  -20.9
2000/11/04 15:20,  999.0,    2.5,    3.2,    1.2,    0.9,    0.6,    0.3,    1.8,    0.8,   -0.1,   -0.7,   -3.8,   -2.1,   -2.0,   -2.3,  999.0,  999.0,  999.0,   -5.7,  999.0,  999.0,  -17.4,  -20.3,  -23.5,  999.0,  -28.8,  -31.4,  -32.6,  -35.7,  -37.6,  -40.3,  -42.5,  -41.5,  -41.8,  -41.8,  -41.7,  -41.9,  -41.9,  -41.5,  -41.7,  -41.8,  -41.9,  -41.9,  -41.5,  -41.1,  -41.4,  -41.6,  -41.3,  -41.3,  -41.8,  -41.8,  -41.9,  -42.0,  -42.0,  -41.8,  -40.8,  -41.8,  -41.6
2000/11/04 15:30,  999.0,    1.0,    0.7,    2.4,    1.4,    1.4,    0.0,    0.6,    1.9,    2.3,    0.9,    0.7,   -0.1,   -1.6,   -0.7,   -1.7,  999.0,  999.0,   -5.7,  999.0,  -16.3,  999.0,  999.0,  -27.2,  -22.3,  -39.0,  -32.1,  -41.9,  -37.4,  -37.6,  -41.7,  -42.2,  -42.0,  -39.6,  -41.3,  -41.7,  -41.8,  -42.1,  -43.1,  -38.5,  -33.3,  -33.7,  -29.9,  -28.3,  -31.9,  -27.5,  -27.1,  -27.0,  -30.2,  -36.4,  -36.9,  -36.8,  -39.5,  -45.8,  -32.6,  -42.0,  -41.6,  -41.1
2000/11/04 15:40,  999.0,  999.0,    0.1,    1.5,   -0.4,  999.0,  999.0,    3.8,    6.6,    6.2,    7.3,    7.8,    7.6,    6.9,    6.5,    5.6,    4.6,   -1.0,    0.7,    1.4,    1.1,    0.6,   -2.0,   -3.5,   -0.9,   -2.3,   -4.6,    0.8,   -5.7,   -7.4,   -6.9,   -7.5,   -7.6,   -6.2,   -7.8,   -6.8,   -1.9,   -4.4,   -7.6,   -2.5,   -3.6,   -3.8,   -8.1,  -18.6,   -8.5,  -12.1,   -9.9,  -10.0,  -23.0,  -11.2,  -12.1,  -12.1,   -5.1,  999.0,  999.0,   -7.5,  999.0,  -16.3
2000/11/04 15:50,  999.0,    1.5,    2.0,   -0.3,   -1.1,    1.8,    3.0,    2.6,    2.6,    4.7,    5.4,    6.3,    6.5,    6.6,    5.6,    2.9,    2.9,    3.8,   13.2,    8.2,    8.5,    0.9,    6.2,    4.0,    5.1,    9.1,   10.2,    7.6,    6.2,    8.3,    9.7,    9.1,    4.4,    4.1,    2.5,    3.8,    1.4,    2.1,    1.0,    1.4,    1.3,    1.2,    2.9,  -24.2,  -26.6,  -26.4,  -26.5,  -26.5,  -27.2,  -28.3,  -28.2,  999.0,  -32.1,  -17.1,  -10.7,  -10.3,  -15.1,  -28.9
2000/11/04 16:00,  999.0,    1.7,    3.9,    5.9,    5.9,    8.0,    7.0,    5.6,    4.8,    4.2,    3.6,    2.7,    2.5,   -0.1,   -0.2,    2.3,    2.9,    5.0,    4.4,   -1.1,   -1.8,   -2.3,   -2.1,   -2.0,   -1.4,    4.3,    1.7,  -10.3,   -8.6,  -11.5,   -5.7,  -17.1,  -14.0,  -13.6,  -25.6,  -25.6,  -23.9,  -24.7,  -23.2,  -21.5,  -16.3,  -14.6,  -14.8,  -22.4,  -22.7,  -20.9,  -21.0,  -19.7,  -18.7,  -18.4,  -18.4,  -24.2,  -19.7,  -16.7,  -21.3,  -20.3,  -21.1,  -18.3
2000/11/04 16:10,  999.0,    4.1,    3.2,    1.9,   -0.1,    1.0,    1.0,    1.7,    2.4,    2.6,    1.1,    1.1,    1.4,    1.7,    1.0,   -0.5,   -1.6,   -1.6,   -1.1,   -0.8,   -1.1,   -2.9,   -3.5,   -4.6,   -5.4,   -5.9,   -5.2,   -6.4,   -7.2,   -6.3,   -6.9,   -8.0,   -9.0,  -11.1,  -11.3,  -11.0,  -14.1,  -18.8,  -15.4,  -11.5,  -10.6,  -10.4,  -10.2,  -11.9,  -11.5,  -11.4,   -7.4,   -5.0,  -12.5,   -9.8,  -14.6,  -14.2,  -10.1,  -10.2,  -11.5,  -12.3,   -7.5,  -10.9
2000/11/04 16:20,  999.0,    3.9,    3.2,    2.9,    3.0,    3.5,    3.6,    4.1,    3.5,    1.5,    1.7,    1.4,    1.0,    0.3,   -0.7,   -1.4,   -2.6,   -2.9,   -2.9,   -3.0,   -2.9,   -2.7,   -2.4,   -3.2,   -2.8,   -4.2,   -5.1,   -6.0,   -6.6,   -5.7,   -6.5,   -7.4,   -9.3,   -9.8,  -10.3,  -11.4,  -10.6,  -11.8,  -12.2,  -11.2,  -10.8,   -6.9,   -7.3,   -7.5,   -6.1,   -2.5,   -0.9,   -1.7,   -0.6,    1.1,   -2.4,   -1.5,   -5.1,   -4.1,   -3.4,   -4.1,   -1.8,   -3.5
2000/11/04 16:30,  999.0,    3.3,    1.9,    1.3,    2.0,    1.4,    1.5,    0.9,    1.7,    1.4,    1.2,    0.9,    0.1,    0.5,    1.3,    0.8,    0.2,   -0.8,   -1.5,   -1.6,   -1.9,   -1.2,   -0.1,    0.5,   -0.3,    0.1,   -1.1,   -1.8,   -1.6,   -2.0,   -4.7,   -6.2,   -6.7,   -5.3,   -4.6,   -4.7,   -4.9,   -4.7,   -6.2,   -3.6,   -5.1,   -4.1,   -3.4,   -2.1,   -0.8,   -2.6,   -2.2,   -2.7,   -2.5,   -1.4,   -4.1,   -3.6,   -0.6,   -2.7,   -1.1,   -3.9,   -1.8,   -1.6
2000/11/04 16:40,  999.0,    0.2,    2.2,    1.7,    0.7,    1.2,    2.0,    2.4,    3.3,    1.9,    1.3,    1.0,    1.1,    1.0,    3.8,  999.0,  999.0,  999.0,  999.0,  999.0,   -1.1,   -0.8,    0.7,    0.2,   -1.0,   -1.6,   -0.9,    0.5,    0.5,    0.4,   -0.3,   -0.6,   -0.3,   -0.6,   -0.6,   -0.5,   -1.1,    0.2,   -1.2,   -0.8,   -0.7,   -0.9,  999.0,  999.0,  999.0,   -0.2,   -1.0,   -1.1,   -0.7,   -0.7,  999.0,   -0.3,    0.2,   -0.7,   -0.8,   -0.8,   -0.7,   -0.4
2000/11/04 16:50,  999.0,  999.0,  999.0,  999.0,  999.0,  999.0,  999.0,  999.0,   21.7,   21.9,   15.3,  999.0,  999.0,  999.0,  999.0,  999.0,  999.0,  999.0,  999.0,  999.0,  999.0,  999.0,   -0.3,  999.0,  999.0,   -0.7,  -13.9,  -27.4,  999.0,  999.0,  999.0,  -29.5,   -1.4,   -1.5,   -4.8,  -31.6,  -32.0,  -16.8,  -17.1,  -24.0,  -17.3,  -26.6,  -19.0,  -22.8,  -30.3,   -0.7,  -19.3,  -23.0,  -35.2,  -17.6,  -38.1,  -39.8,  -40.6,  999.0,  -41.7,  -34.8,  -41.8,  -40.6
2000/11/04 17:00,  999.0,   -1.5,   -4.2,   -1.1,    0.0,    1.1,    0.6,    1.3,    2.2,    7.8,   11.4,    1.9,   -6.5,   -6.1,   -5.2,   -2.4,    1.4,    2.6,   -7.8,   -8.6,    1.8,    2.8,    3.3,  -11.3,   -6.8,  -13.4,  -28.5,  -10.1,  -10.8,   -0.8,  -10.8,  -11.6,  -17.0,  -19.6,  -16.8,  -14.6,  -35.0,  -35.9,  -25.3,  -26.4,  -27.6,  -10.2,  -20.1,  -22.9,  -20.5,  -22.4,  -23.4,  -24.3,  -16.5,  -33.4,  -26.4,  -19.1,  -40.5,  -41.5,  -20.2,  -20.9,  -42.0,  -24.3
2000/11/04 17:10,  999.0,    3.6,    2.2,    2.0,    1.8,   -3.8,   -4.7,   -4.9,   -3.9,   -3.5,   -3.9,   -4.7,   -5.0,   -4.9,   -3.8,   -4.2,   -4.4,   -5.3,   -5.8,   -6.4,  999.0,  999.0,   -0.0,   -0.6,  -13.3,   -9.6,   -0.9,   -0.9,   -0.4,   -9.8,  -10.2,  999.0,  999.0,   -2.2,  999.0,   -1.2,  -13.7,   -9.6,  -15.4,  -34.4,   -8.0,  -26.6,  -19.7,  999.0,  -37.2,  -13.0,  -22.2,  -28.4,  -31.3,  -29.5,  -32.6,  -36.4,  -38.8,  -41.5,  -38.4,  -31.9,  -41.9,  999.0
2000/11/04 17:20,  999.0,  999.0,    2.6,    2.7,    1.9,    1.1,    1.3,    2.0,    3.4,    3.0,    4.3,    4.0,    3.4,   -5.4,  -20.8,   -1.6,  999.0,   -1.1,   -1.2,  999.0,   -0.8,   -0.8,   -0.7,  999.0,   -0.4,   -0.9,   -0.7,   -0.9,   -0.6,   -0.6,   -0.5,   -0.8,   -0.0,   -0.9,   -0.8,  999.0,   -1.6,   -0.5,   -6.7,   -9.3,   -6.1,  -13.9,   -8.0,   -9.1,  -10.5,   -1.0,  999.0,  -27.1,  -30.4,  -15.6,  -33.0,  -17.8,  -18.8,  -13.5,   -0.8,   -1.1,   -1.3,   -0.7
2000/11/04 17:30,  999.0,    3.0,    3.4,    2.1,   -0.7,   -0.3,  999.0,   -1.8,  999.0,    1.8,    2.0,  -10.4,   -0.3,   -6.0,   -1.7,  999.0,  -19.9,  999.0,  -17.4,  999.0,  999.0,  999.0,  999.0,  999.0,  999.0,  999.0,  999.0,  999.0,  999.0,  999.0,  999.0,  999.0,  999.0,   -5.7,   -2.0,  999.0,   -0.7,   -0.7,   -0.9,   -0.8,  999.0,   -0.8,   -0.5,   -0.4,   -0.8,   -0.6,   -1.3,  999.0,  999.0,  999.0,   -0.7,  999.0,   -0.7,   -0.5,   -0.7,   -0.3,   -0.5,   -0.7
2000/11/04 17:40,  999.0,    1.7,    2.5,    2.3,    1.5,   -0.2,  999.0,  999.0,  999.0,    0.2,    1.0,   -1.5,   -1.8,   -0.8,    1.1,    0.3,  999.0,  999.0,  999.0,  999.0,  999.0,  999.0,  999.0,  999.0,  999.0,  999.0,  999.0,  999.0,   -9.3,   -9.8,   -9.3,   -6.8,   -6.5,   -5.7,   -5.0,   -3.8,   -3.7,   -1.7,   -1.1,   -1.9,   -1.1,  999.0,   -1.2,   -0.5,   -0.9,   -0.8,  999.0,   -0.5,  999.0,   -0.5,   -1.1,    0.1,   -0.5,   -0.8,   -0.7,   -0.8,   -1.1,   -0.3
2000/11/04 17:50,  999.0,    2.5,    2.1,    1.7,    1.0,    0.9,  999.0,  999.0,  999.0,  999.0,    1.6,   -0.4,   -1.7,   -1.2,  999.0,  999.0,  999.0,  999.0,  999.0,  999.0,  999.0,  999.0,  999.0,  999.0,  999.0,  999.0,  999.0,  999.0,  999.0,  999.0,  999.0,  999.0,  999.0,  999.0,  999.0,  999.0,  999.0,  999.0,  999.0,  999.0,  999.0,  999.0,   -4.6,  999.0,  999.0,  999.0,  -23.1,  -22.6,  999.0,  999.0,  999.0,  999.0,  999.0,  999.0,  999.0,  999.0,  999.0,  999.0
2000/11/04 18:00,  999.0,    4.1,    0.1,    2.5,    0.9,  999.0,    0.2,  999.0,  999.0,    0.4,    0.6,   -0.4,   -1.1,   -2.1,  999.0,  999.0,  999.0,  999.0,  999.0,  999.0,  999.0,  999.0,  999.0,  999.0,  999.0,  999.0,  999.0,  999.0,  999.0,  999.0,  999.0,  999.0,  999.0,  -17.0,  999.0,  999.0,  999.0,  999.0,  999.0,  999.0,  999.0,  999.0,  -12.3,  -10.9,  999.0,  999.0,   -8.9,   -8.0,  999.0,  999.0,  999.0,  999.0,  999.0,  999.0,   -1.8,  999.0,  999.0,  999.0
2000/11/04 18:10,  999.0,  999.0,  999.0,    1.2,   -0.7,  999.0,  999.0,    0.3,   -0.1,    0.5,    1.1,    0.6,   -1.0,   -1.8,   -0.7,  999.0,   -6.0,  999.0,  999.0,  999.0,  999.0,  999.0,  999.0,  999.0,  999.0,  999.0,  999.0,  -12.3,   -9.7,  999.0,  999.0,   -9.3,  -10.5,   -9.7,   -7.8,   -8.2,  999.0,  999.0,   -4.6,   -5.9,   -5.3,   -3.2,   -5.3,   -3.0,   -5.3,  999.0,  999.0,   -0.9,   -2.9,   -1.2,   -1.4,   -1.0,  999.0,   -0.7,   -1.2,   -1.0,  999.0,   -0.7
2000/11/04 18:20,  999.0,  999.0,  999.0,  999.0,  999.0,  999.0,  999.0,    3.4,    0.7,   -3.3,   -2.2,    0.2,    7.5,    2.5,   -0.7,  999.0,  999.0,    5.6,    7.2,  999.0,  999.0,  999.0,   13.4,    5.3,    6.2,  999.0,  999.0,  999.0,    9.4,  999.0,  999.0,  -10.2,  999.0,  999.0,  999.0,  999.0,  999.0,  999.0,  999.0,  999.0,   -1.9,   20.2,  999.0,   -0.3,  999.0,  999.0,  999.0,  999.0,   -1.5,  999.0,  999.0,  999.0,   -0.5,  999.0,  999.0,  999.0,  999.0,  999.0
2000/11/04 18:30,  999.0,    2.1,    6.4,   -4.5,  999.0,   -3.8,  999.0,   -0.9,   -0.5,    0.5,    2.6,   -3.7,   -1.8,   -0.8,  999.0,   -2.1,  999.0,  999.0,   -1.7,   -0.2,  999.0,  999.0,   -3.3,   -0.2,   -3.4,  999.0,  999.0,  999.0,  999.0,  999.0,  999.0,  999.0,  999.0,  999.0,  999.0,  999.0,  999.0,  999.0,  999.0,  999.0,  999.0,  999.0,   -1.2,  999.0,   -1.5,   -3.2,  999.0,   -0.9,   -2.4,  999.0,   -1.3,  999.0,  999.0,   -0.6,   -1.7,  999.0,  999.0,   -1.0
2000/11/04 18:40,  999.0,  999.0,    1.4,   -0.6,   -2.3,   -2.9,   -0.5,   -1.3,   -0.7,    0.6,    0.2,  999.0,   -0.6,   -3.1,  999.0,  999.0,   -1.5,   -1.9,   -0.6,   -0.6,  999.0,  999.0,  999.0,  999.0,  999.0,  999.0,  999.0,  999.0,  999.0,  999.0,  999.0,  999.0,  999.0,  999.0,   -6.2,  999.0,   -5.2,   -5.4,   -1.4,   -2.3,   -2.4,   -0.5,  999.0,   -0.9,   -1.1,   -0.4,  999.0,   -0.7,   -0.5,    0.2,   -0.4,   -0.6,   -1.0,   -0.1,   -1.2,   -1.2,  999.0,  999.0
2000/11/04 18:50,  999.0,  999.0,  999.0,  999.0,  999.0,  -10.8,    0.9,   -6.2,   -1.6,   -0.4,   -1.2,   -1.2,  999.0,    3.3,  999.0,  999.0,   -0.1,    0.8,  999.0,  999.0,  999.0,  999.0,  999.0,  999.0,  999.0,  999.0,  999.0,  999.0,  999.0,  999.0,  999.0,  999.0,  999.0,  999.0,  999.0,  999.0,  999.0,  999.0,  999.0,  999.0,  999.0,  999.0,  999.0,  999.0,  999.0,  999.0,  999.0,  999.0,  999.0,  999.0,  999.0,  999.0,  999.0,  999.0,  999.0,  999.0,  999.0,  999.0
2000/11/04 19:00,  999.0,    5.1,    5.5,  999.0,  999.0,   -5.8,    0.8,   -0.4,   -2.7,   -0.8,   -0.7,    1.1,   -0.6,    0.4,   -3.1,  999.0,    3.6,  999.0,  999.0,    5.1,   -3.7,   -1.4,   -9.7,  999.0,  999.0,  999.0,  999.0,  999.0,  999.0,  999.0,  999.0,  999.0,  999.0,  999.0,  999.0,  999.0,  999.0,  999.0,  999.0,  999.0,  999.0,  999.0,  999.0,  999.0,  999.0,  999.0,  999.0,  999.0,  999.0,  999.0,  999.0,  999.0,  999.0,  999.0,  999.0,  999.0,  999.0,  999.0
2000/11/04 19:10,  999.0,  999.0,  999.0,  999.0,  999.0,  999.0,  999.0,   -6.9,   -6.0,   -2.8,   -6.3,   -8.1,   -5.3,  999.0,   -9.2,    3.4,  999.0,  999.0,  999.0,    3.8,    1.7,  999.0,  999.0,   -0.2,    0.4,  999.0,    0.0,   -0.3,  999.0,  999.0,  999.0,  999.0,  999.0,  999.0,  999.0,  999.0,  999.0,  999.0,  999.0,  999.0,  999.0,  999.0,  999.0,  999.0,  999.0,  999.0,  999.0,  999.0,  999.0,  999.0,  999.0,  999.0,  999.0,  999.0,  999.0,  999.0,  999.0,  999.0
2000/11/04 19:20,  999.0,   -0.9,   -0.7,   -4.0,    2.1,  999.0,  999.0,   -1.8,   -1.1,   -9.0,   -1.5,    3.3,    1.8,  -10.3,  999.0,   -2.6,    0.4,   -0.9,  999.0,   -1.3,    6.7,    4.4,  999.0,  999.0,  999.0,  999.0,  999.0,  999.0,  999.0,  999.0,  999.0,  999.0,  999.0,  999.0,  999.0,  999.0,  999.0,  999.0,  999.0,  999.0,  999.0,  999.0,  999.0,  999.0,  999.0,  999.0,  999.0,  999.0,  999.0,  999.0,  999.0,  999.0,  999.0,  999.0,  999.0,  999.0,  999.0,  999.0
2000/11/04 19:30,  999.0,  999.0,   -8.5,   -2.0,   -2.8,   -0.8,   -1.8,   -2.3,   -0.5,   -0.7,   -1.6,    0.6,   -0.5,    5.5,  999.0,    8.2,    9.1,  999.0,  999.0,    8.0,    9.1,  999.0,  999.0,  999.0,  999.0,  999.0,  999.0,  999.0,  999.0,  999.0,  999.0,  999.0,  999.0,  999.0,  999.0,  999.0,  999.0,  999.0,  999.0,  999.0,  999.0,  999.0,  999.0,  999.0,  999.0,  999.0,  999.0,  999.0,  999.0,  999.0,  999.0,  999.0,  999.0,  999.0,  999.0,  999.0,  999.0,  999.0
2000/11/04 19:40,  999.0,   -1.7,  999.0,   -0.4,    0.4,   -0.4,   -3.3,   -2.6,   -2.0,    0.1,   -6.7,   -7.5,  -10.1,   -4.1,   -3.6,    2.9,  999.0,  999.0,  999.0,  999.0,   -0.0,   -1.9,  999.0,  999.0,  999.0,  999.0,  999.0,  999.0,  999.0,  999.0,  999.0,  999.0,  999.0,  999.0,  999.0,  999.0,  999.0,  999.0,  999.0,  999.0,  999.0,  999.0,  999.0,  999.0,  999.0,  999.0,  999.0,  999.0,  999.0,  999.0,  999.0,  999.0,  999.0,  999.0,  999.0,  999.0,  999.0,  999.0
2000/11/04 19:50,  999.0,  999.0,   -9.9,  999.0,   -0.3,  999.0,   -4.5,    1.7,    0.6,    1.2,   -3.3,    0.7,    4.1,    2.0,    0.8,   -4.2,    1.0,    0.2,    4.4,    5.0,    0.9,    2.4,    1.7,    0.3,  999.0,  999.0,    0.0,  999.0,  -10.5,  -11.5,  999.0,  999.0,  999.0,  999.0,  999.0,  999.0,  999.0,  999.0,  999.0,  999.0,  999.0,  999.0,  999.0,  999.0,  999.0,  999.0,  999.0,  999.0,  999.0,  999.0,  999.0,  999.0,  999.0,  999.0,  999.0,  999.0,  999.0,  999.0
2000/11/04 20:00,  999.0,  999.0,  999.0,   -5.0,  999.0,  999.0,   -4.5,    3.0,    6.4,    9.3,    3.6,   -1.0,   -2.0,    1.0,    1.2,    2.8,    0.9,    0.4,    6.9,  999.0,    0.1,   -3.4,   -8.3,   11.8,    0.9,  999.0,  999.0,    0.8,   -1.9,    2.1,  999.0,  999.0,  999.0,  999.0,  999.0,  999.0,  999.0,  999.0,    2.3,  999.0,  999.0,  999.0,  999.0,  999.0,  999.0,  999.0,  999.0,  999.0,  999.0,  999.0,  999.0,  999.0,  999.0,  999.0,  999.0,  999.0,  999.0,  999.0
2000/11/04 20:10,  999.0,  999.0,   -6.8,   -3.7,  999.0,    1.3,   -1.7,   -1.6,   -3.2,   -4.7,    1.2,    1.7,   -5.7,   -0.7,   -0.8,    1.8,  999.0,   -3.7,    0.9,   -4.9,   -6.1,  999.0,  999.0,  999.0,  999.0,  999.0,  999.0,  999.0,  999.0,  999.0,  999.0,  999.0,  999.0,  999.0,  999.0,  999.0,  999.0,  999.0,  999.0,  999.0,  999.0,  999.0,  999.0,  999.0,  999.0,  999.0,  999.0,  999.0,  999.0,  999.0,  999.0,  999.0,  999.0,  999.0,  999.0,  999.0,  999.0,  999.0
2000/11/04 20:20,  999.0,  999.0,  999.0,   -0.2,    0.5,    3.0,   -2.0,   -1.6,    1.0,   -6.8,   -7.1,    1.3,    0.5,   -2.0,   -4.9,   -0.8,    1.9,    1.4,   -1.8,   -5.6,  999.0,  999.0,  999.0,  999.0,  999.0,  999.0,  999.0,  999.0,   -5.3,  999.0,  999.0,  999.0,  999.0,  999.0,  999.0,  999.0,  999.0,  999.0,  999.0,  999.0,  999.0,  999.0,  999.0,  999.0,  999.0,  999.0,  999.0,  999.0,   -3.6,  999.0,  999.0,  999.0,  999.0,  999.0,  999.0,  999.0,  999.0,  999.0
2000/11/04 20:30,  999.0,    3.0,    1.9,   -2.7,   -7.6,   -3.7,   -2.9,    0.8,   -3.7,   -3.1,   -6.2,  999.0,   -0.6,   -2.4,   -0.0,  999.0,  999.0,    9.7,  999.0,  999.0,  999.0,  999.0,  999.0,  999.0,  999.0,  999.0,    6.7,  999.0,  999.0,  999.0,  999.0,  999.0,  999.0,  999.0,  999.0,  999.0,  999.0,  999.0,  999.0,  999.0,  999.0,  999.0,  999.0,  999.0,    0.6,  999.0,  999.0,  999.0,  999.0,  999.0,  999.0,  999.0,  999.0,  999.0,    0.7,  999.0,  999.0,  999.0
2000/11/04 20:40,  999.0,  999.0,  999.0,  999.0,   -7.6,   -7.9,   -2.5,    1.5,   -4.1,   -5.0,   -6.5,    1.4,   -3.3,    1.6,  999.0,   -0.7,    0.9,   -0.5,  999.0,  999.0,  999.0,  999.0,    0.1,   -0.0,  999.0,    0.3,  999.0,    0.6,  999.0,  -13.0,  999.0,  999.0,  999.0,  999.0,  999.0,  999.0,  999.0,  999.0,  999.0,  999.0,  999.0,  999.0,  999.0,  999.0,  999.0,  999.0,  999.0,  999.0,  999.0,  999.0,  999.0,  999.0,  999.0,  999.0,  999.0,  999.0,  999.0,  999.0
2000/11/04 20:50,  999.0,    0.8,    3.0,    5.0,    0.1,  999.0,    0.6,   -0.6,   -0.4,   -1.6,   -0.7,   -2.3,   -1.9,    2.5,   -1.4,   -5.7,  999.0,  999.0,    4.4,    7.1,  999.0,  999.0,    1.2,    7.2,   -0.1,  999.0,  999.0,    2.9,    3.2,  999.0,  999.0,  999.0,  999.0,   -1.1,  999.0,  999.0,  999.0,  999.0,  999.0,  999.0,  999.0,  999.0,  999.0,  999.0,  999.0,  999.0,  999.0,  999.0,  999.0,  999.0,  999.0,    3.1,  999.0,  999.0,  999.0,  999.0,    0.9,    1.0
2000/11/04 21:00,  999.0,  999.0,  999.0,    1.5,   -3.6,    1.5,   -1.0,    1.5,   -6.8,   -4.6,   -3.8,    1.1,    1.5,    3.7,    1.0,   -2.8,   -7.5,  999.0,  999.0,  999.0,  999.0,  999.0,  999.0,  999.0,   -0.1,  999.0,  999.0,  999.0,  999.0,  999.0,  999.0,    2.3,    0.2,    0.1,  999.0,  999.0,  999.0,  999.0,    3.6,  999.0,  999.0,  999.0,  999.0,  999.0,  999.0,  999.0,  999.0,  999.0,  999.0,  999.0,  999.0,  999.0,  999.0,  999.0,  999.0,  999.0,  999.0,  999.0
2000/11/04 21:10,  999.0,    0.7,    0.4,    0.2,    4.1,   -0.0,   -0.5,    0.5,    0.4,   -1.5,    1.7,   -0.6,   -0.2,    1.3,    2.2,    7.8,    4.3,   -2.0,  999.0,  999.0,  999.0,   -6.1,   -7.8,  999.0,  999.0,  999.0,  999.0,  999.0,  999.0,  999.0,  999.0,  999.0,  999.0,  999.0,  999.0,  999.0,  999.0,  999.0,  999.0,  999.0,  999.0,  999.0,  999.0,  999.0,  999.0,  999.0,  999.0,  999.0,  999.0,  999.0,  999.0,  999.0,  999.0,  999.0,  999.0,  999.0,  999.0,  999.0
2000/11/04 21:20,  999.0,    1.8,  999.0,    2.0,   -2.7,   -0.6,   -1.2,    4.4,   -0.3,   -1.0,   -3.3,   -1.9,   -0.3,    0.4,    0.5,    1.7,  999.0,    0.7,    0.8,    0.3,  999.0,  999.0,  999.0,  999.0,  -11.2,  999.0,  999.0,  999.0,  999.0,  999.0,  999.0,  999.0,  999.0,  999.0,  999.0,  999.0,  999.0,  999.0,  999.0,  999.0,  999.0,  999.0,  999.0,  999.0,  999.0,  999.0,  999.0,  999.0,  999.0,  999.0,  999.0,  999.0,  999.0,  999.0,  999.0,  999.0,  999.0,  999.0
2000/11/04 21:30,  999.0,  999.0,  999.0,   -0.1,   -1.1,   -0.6,   -0.3,    2.1,    4.1,   -6.1,    1.2,  999.0,    5.3,   -2.9,   -4.4,   -7.8,   -6.7,   -8.2,  999.0,   -1.8,   -4.6,  999.0,  999.0,  999.0,    0.9,    0.9,  999.0,  999.0,  999.0,  999.0,  999.0,  999.0,  999.0,  999.0,  999.0,  999.0,  999.0,  999.0,  999.0,  999.0,    0.8,  999.0,  999.0,  999.0,  999.0,  999.0,  999.0,  999.0,    1.0,    0.9,  999.0,    0.7,  999.0,  999.0,  999.0,    1.7,  999.0,    0.7
2000/11/04 21:40,  999.0,  999.0,  999.0,   -0.4,   -0.0,   -2.3,   -1.7,   -4.0,   -1.8,   -1.6,   -1.5,    0.7,   -0.6,   -0.7,   -2.0,  999.0,   -2.6,  -13.9,  999.0,  999.0,  999.0,  999.0,  999.0,  999.0,  999.0,   -9.4,  999.0,  -12.8,  -13.4,  999.0,  999.0,  999.0,  999.0,  999.0,  999.0,  999.0,  999.0,  999.0,  999.0,  999.0,  999.0,  999.0,  -24.0,  999.0,  999.0,  999.0,  999.0,  999.0,  999.0,  999.0,  999.0,  999.0,  999.0,  999.0,  999.0,  999.0,  999.0,  999.0
2000/11/04 21:50,  999.0,  999.0,  999.0,   -1.7,   -4.9,   -3.0,   -3.3,   -4.0,   -3.4,   -2.6,    0.5,    4.0,  999.0,   -2.6,   -1.9,   -1.6,   -1.8,    1.1,  999.0,   -2.3,   -1.3,  999.0,  999.0,  999.0,  999.0,  999.0,  999.0,   -5.7,  999.0,  999.0,  999.0,  -14.2,  999.0,  999.0,  999.0,  999.0,  999.0,  999.0,  -21.2,  -23.0,  999.0,  999.0,  999.0,  999.0,  999.0,  999.0,  999.0,  999.0,  999.0,  999.0,  999.0,  999.0,  999.0,  999.0,  999.0,  999.0,  999.0,  999.0
2000/11/04 22:00,  999.0,  999.0,  999.0,  999.0,  999.0,   -5.0,   -5.0,   -5.7,   -6.1,   -3.2,   -3.8,   -1.3,   -1.4,   -5.1,   -2.9,   -2.7,  -21.5,   -0.8,  999.0,    4.8,  999.0,  -22.0,  -21.7,  999.0,  999.0,  999.0,  999.0,  999.0,  999.0,  999.0,  999.0,  999.0,  -21.6,  999.0,  -22.2,  -22.7,  999.0,  -22.3,  999.0,  999.0,  -22.5,  999.0,  999.0,  999.0,  999.0,  -23.2,  999.0,  -24.0,  -23.0,  999.0,  999.0,  999.0,  999.0,  999.0,  999.0,  999.0,  999.0,  999.0
2000/11/04 22:10,  999.0,  999.0,  999.0,   -2.4,   -1.9,  -11.7,   -6.0,   -3.3,   -3.7,   -3.3,   -2.7,   -0.8,   -0.6,    1.2,   -1.1,   -2.8,  999.0,    3.4,  999.0,  999.0,  999.0,  999.0,  999.0,  999.0,  999.0,    2.4,    2.6,  999.0,  999.0,  999.0,   -1.5,  999.0,  999.0,   -0.9,   -8.2,   -6.5,  999.0,   -9.0,   -6.5,  999.0,  999.0,  999.0,  999.0,  999.0,  999.0,  999.0,  999.0,  999.0,  999.0,  999.0,  999.0,  999.0,  999.0,  999.0,  999.0,  999.0,  999.0,  999.0
2000/11/04 22:20,  999.0,  999.0,  999.0,  999.0,  999.0,  -16.4,  -11.6,   -1.5,   -1.7,    0.0,   -0.1,   -1.0,    1.7,    2.8,   -0.7,  999.0,  999.0,   -6.6,   -2.0,  999.0,  999.0,  999.0,  999.0,  999.0,  999.0,  999.0,  999.0,  999.0,  999.0,  999.0,  999.0,  999.0,  999.0,  999.0,  999.0,  999.0,  999.0,  999.0,  999.0,  999.0,  999.0,  999.0,  999.0,  999.0,  999.0,  999.0,  999.0,  999.0,  999.0,  999.0,  999.0,  999.0,  999.0,  999.0,  999.0,  999.0,  999.0,  999.0
2000/11/04 22:30,  999.0,  999.0,  999.0,    0.1,  999.0,   -4.2,   -5.9,   -7.4,   -2.9,   -3.0,    4.1,  999.0,   -2.8,   -2.8,  999.0,  999.0,   -6.9,  999.0,  999.0,  999.0,  999.0,  999.0,  999.0,  999.0,  999.0,  999.0,  -22.0,  999.0,  999.0,  999.0,  -13.1,  -21.4,   -0.7,    5.0,  999.0,  -21.7,  999.0,  999.0,  -22.1,   -9.9,  -22.2,  999.0,  -10.8,   -7.5,  999.0,  999.0,  -21.5,  -11.5,  999.0,  999.0,  -11.7,  999.0,  999.0,   -0.3,   -0.5,  999.0,  999.0,  999.0
2000/11/04 22:40,  999.0,  999.0,  999.0,  999.0,  999.0,   -4.4,   -1.3,   -2.5,   -3.6,   -4.0,   -5.9,  -11.4,   -5.7,  -12.3,   -1.1,  999.0,  999.0,  999.0,  999.0,    0.4,   -1.5,  999.0,  999.0,  999.0,   -5.3,  999.0,  -16.7,  999.0,  -12.0,  999.0,  999.0,  999.0,  999.0,   -6.4,  999.0,  999.0,   -3.6,   -2.4,  999.0,  999.0,  999.0,  999.0,   -1.1,   -0.4,   -0.8,  999.0,  999.0,  999.0,  999.0,  999.0,   -0.8,  999.0,  999.0,  999.0,  999.0,  999.0,  999.0,  999.0
2000/11/04 22:50,  999.0,  999.0,    1.2,   -1.7,    1.1,   -1.8,   -5.4,   -5.0,   -3.3,   -2.7,    1.0,   -0.8,    0.1,   -4.1,    0.3,    0.4,   -2.6,  999.0,  999.0,  999.0,  999.0,  999.0,  999.0,  999.0,  999.0,  999.0,  999.0,  999.0,  999.0,  999.0,  999.0,  999.0,  999.0,  999.0,  999.0,  999.0,  999.0,  999.0,  999.0,  999.0,  999.0,  999.0,  999.0,  999.0,  999.0,    6.7,  999.0,  999.0,  999.0,  999.0,  999.0,  999.0,  999.0,  999.0,  999.0,    4.4,  999.0,  999.0
2000/11/04 23:00,  999.0,  999.0,  999.0,  999.0,    1.4,   -5.7,   -2.5,   -2.5,   -3.9,   -2.5,   -0.4,   -2.0,   -4.8,    7.6,    0.4,  999.0,  999.0,  999.0,  999.0,  999.0,  999.0,  999.0,  999.0,  999.0,  999.0,  -30.8,  -19.5,  -19.6,  -19.4,  999.0,  999.0,  -19.5,  999.0,  999.0,  -18.3,  -18.1,  -18.0,  -41.5,  999.0,  -40.8,  999.0,  -16.7,  -41.8,  999.0,  -17.0,  -16.4,  -29.2,  -41.2,  -16.4,  -16.2,  -28.7,  -41.5,  -16.6,  -41.0,  -16.1,  999.0,  -17.4,  999.0
2000/11/04 23:10,  999.0,  999.0,    2.4,    2.0,    0.9,  999.0,   -0.9,  999.0,   -2.4,   -4.4,   -5.4,   -2.5,   -0.2,    1.4,    3.9,  999.0,  999.0,    1.7,  999.0,    5.1,  999.0,  999.0,  999.0,  999.0,  999.0,  999.0,  -10.9,  999.0,  999.0,  999.0,   -1.4,   -1.2,   -0.9,   -1.2,   -0.9,   -0.4,   -1.0,   -0.6,   -0.4,   -0.8,   -0.8,   -1.3,   -0.5,   -0.4,  999.0,   -1.2,  999.0,   -0.3,  999.0,   -0.1,  999.0,   -0.5,  999.0,   -0.4,   -0.2,   -1.0,   -0.9,  999.0
2000/11/04 23:20,  999.0,   -2.9,    1.2,    1.4,    0.2,   -4.3,    4.3,   -0.6,   -3.8,   -3.3,   -2.6,   -4.2,   -6.8,  999.0,    1.7,   -2.9,   -2.1,   -2.1,   -0.9,   -1.7,   -3.0,  999.0,  999.0,  999.0,  999.0,  999.0,  999.0,  999.0,  999.0,  999.0,   -0.3,  999.0,   -0.4,   -1.2,  999.0,   -0.7,   -0.8,   -0.9,   -0.4,   -0.1,   -1.0,   -0.3,   -0.4,  999.0,   -1.4,  999.0,   -1.2,  999.0,   -1.1,  999.0,  999.0,   -1.5,    0.0,   -0.6,   -0.3,   -0.9,   -0.2,   -0.9
2000/11/04 23:30,  999.0,    1.0,   -2.8,    1.5,  999.0,    0.8,    3.1,   -2.5,   -1.6,   -5.9,    0.3,    3.0,   -3.1,   -6.5,    6.2,  999.0,   -6.4,    1.9,  999.0,  999.0,  999.0,  999.0,   -6.2,  999.0,  999.0,  999.0,  999.0,   -8.9,  999.0,  999.0,   -6.3,   -0.3,   -5.6,   -0.0,   -2.7,   -1.9,   -0.8,   -1.7,  999.0,   14.8,  999.0,   -1.6,   -0.5,   -1.0,  999.0,   -1.4,  999.0,   -0.6,   -0.7,   -0.3,   -0.7,   -0.2,   -1.2,   -1.2,  999.0,   -1.4,  999.0,   -1.4
2000/11/04 23:40,  999.0,   -2.1,   -2.6,   -0.3,    1.6,   -1.9,    2.3,   -3.7,  999.0,    0.0,  999.0,    0.6,    1.9,   -1.0,   -0.2,   -5.2,   -8.0,  999.0,  999.0,  999.0,  999.0,  999.0,  999.0,  999.0,  -12.1,  999.0,  999.0,   -8.8,  999.0,   -6.4,   -3.5,   -3.4,   -1.7,   -1.5,   -1.5,   -0.7,   -0.5,   -0.8,   -1.6,   -0.6,   -0.6,   -0.6,   -1.3,   -0.9,   -0.7,   -0.6,   -1.2,  999.0,  999.0,   -0.9,   -0.5,   -0.5,   -0.7,   -0.0,   -0.9,   -1.0,   -1.2,   -0.6
2000/11/04 23:50,  999.0,   -1.9,   -0.3,   -1.2,  999.0,   -2.8,    0.6,   -1.6,   -0.6,    1.7,   -1.2,   -0.5,    0.2,    0.4,   -5.9,   -0.6,  999.0,    3.0,   12.5,    4.9,   22.4,  999.0,  999.0,    5.5,  -10.4,   -9.4,  999.0,  999.0,   -5.0,   -3.6,   -1.7,   -1.6,  999.0,   -0.4,   -0.4,   -1.2,   -1.0,   -1.1,   -1.3,  999.0,   -0.6,   20.6,   -0.1,   -1.4,   -0.9,  999.0,   -0.7,  999.0,  999.0,   -0.9,  999.0,   -0.8,   -0.7,   -2.3,   -0.1,   -1.1,  999.0,  999.0
